| time (UTC) | temp F | wind direction | speed MPH | gust MPH | rain 1hr in | rain 24hr in | rain mn in | humidity % | barometer mb |
| 20260505170214 | 81 | 221 | 9.0 | 23.0 | 0.00 | 0.00 | 0.00 | 43 | 1007.7 |
| 20260505170112 | 81 | 215 | 9.0 | 23.0 | 0.00 | 0.00 | 0.00 | 42 | 1007.8 |
| 20260505170007 | 81 | 205 | 10.0 | 23.0 | 0.00 | 0.00 | 0.00 | 41 | 1007.8 |
| 20260505165906 | 81 | 198 | 10.0 | 23.0 | 0.00 | 0.00 | 0.00 | 39 | 1007.8 |
| 20260505165800 | 81 | 212 | 10.0 | 23.0 | 0.00 | 0.00 | 0.00 | 41 | 1007.8 |
| 20260505165701 | 80 | 186 | 10.0 | 23.0 | 0.00 | 0.00 | 0.00 | 42 | 1007.9 |
| 20260505165554 | 80 | 222 | 10.0 | 23.0 | 0.00 | 0.00 | 0.00 | 41 | 1007.8 |
| 20260505165455 | 80 | 200 | 10.0 | 23.0 | 0.00 | 0.00 | 0.00 | 41 | 1007.9 |
| 20260505165348 | 80 | 206 | 11.0 | 23.0 | 0.00 | 0.00 | 0.00 | 40 | 1007.9 |
| 20260505165249 | 80 | 224 | 11.0 | 23.0 | 0.00 | 0.00 | 0.00 | 40 | 1007.9 |
| 20260505165222 | 80 | 199 | 11.0 | 23.0 | 0.00 | 0.00 | 0.00 | 41 | 1008.0 |
| 20260505165217 | 80 | 218 | 11.0 | 23.0 | 0.00 | 0.00 | 0.00 | 40 | 1008.0 |
| 20260505165207 | 80 | 217 | 11.0 | 23.0 | 0.00 | 0.00 | 0.00 | 40 | 1007.9 |
| 20260505164837 | 80 | 239 | 11.0 | 23.0 | 0.00 | 0.00 | 0.00 | 41 | 1008.0 |
| 20260505164730 | 80 | 217 | 11.0 | 23.0 | 0.00 | 0.00 | 0.00 | 42 | 1008.0 |
| 20260505164631 | 80 | 208 | 11.0 | 23.0 | 0.00 | 0.00 | 0.00 | 42 | 1008.0 |
| 20260505164524 | 80 | 237 | 10.0 | 23.0 | 0.00 | 0.00 | 0.00 | 41 | 1008.1 |
| 20260505164442 | 80 | 222 | 9.0 | 23.0 | 0.00 | 0.00 | 0.00 | 42 | 1008.0 |
| 20260505164435 | 80 | 204 | 10.0 | 23.0 | 0.00 | 0.00 | 0.00 | 41 | 1008.1 |
| 20260505164219 | 80 | 215 | 9.0 | 17.0 | 0.00 | 0.00 | 0.00 | 43 | 1008.1 |
| 20260505164113 | 80 | 230 | 10.0 | 17.0 | 0.00 | 0.00 | 0.00 | 42 | 1008.1 |
| 20260505164012 | 80 | 227 | 10.0 | 17.0 | 0.00 | 0.00 | 0.00 | 40 | 1008.1 |
| 20260505163906 | 80 | 243 | 10.0 | 17.0 | 0.00 | 0.00 | 0.00 | 42 | 1008.1 |
| 20260505163807 | 80 | 211 | 10.0 | 17.0 | 0.00 | 0.00 | 0.00 | 42 | 1008.2 |
| 20260505163700 | 80 | 232 | 10.0 | 17.0 | 0.00 | 0.00 | 0.00 | 43 | 1008.2 |
| 20260505163601 | 80 | 256 | 9.0 | 17.0 | 0.00 | 0.00 | 0.00 | 42 | 1008.2 |
| 20260505163454 | 80 | 268 | 9.0 | 20.0 | 0.00 | 0.00 | 0.00 | 43 | 1008.2 |
| 20260505163355 | 80 | 278 | 9.0 | 20.0 | 0.00 | 0.00 | 0.00 | 44 | 1008.2 |
| 20260505163249 | 80 | 182 | 10.0 | 20.0 | 0.00 | 0.00 | 0.00 | 43 | 1008.2 |
| 20260505163206 | 80 | 192 | 9.0 | 20.0 | 0.00 | 0.00 | 0.00 | 41 | 1008.3 |
| 20260505163159 | 80 | 240 | 10.0 | 20.0 | 0.00 | 0.00 | 0.00 | 43 | 1008.2 |
| 20260505162943 | 81 | 194 | 9.0 | 20.0 | 0.00 | 0.00 | 0.00 | 42 | 1008.3 |
| 20260505162837 | 81 | 157 | 9.0 | 20.0 | 0.00 | 0.00 | 0.00 | 43 | 1008.4 |
| 20260505162737 | 81 | 241 | 9.0 | 20.0 | 0.00 | 0.00 | 0.00 | 43 | 1008.4 |
| 20260505162653 | 81 | 191 | 9.0 | 20.0 | 0.00 | 0.00 | 0.00 | 45 | 1008.5 |
| 20260505162645 | 81 | 218 | 9.0 | 20.0 | 0.00 | 0.00 | 0.00 | 46 | 1008.4 |
| 20260505162425 | 80 | 213 | 9.0 | 19.0 | 0.00 | 0.00 | 0.00 | 45 | 1008.3 |
| 20260505162343 | 80 | 228 | 9.0 | 19.0 | 0.00 | 0.00 | 0.00 | 46 | 1008.3 |
| 20260505162335 | 80 | 200 | 9.0 | 19.0 | 0.00 | 0.00 | 0.00 | 44 | 1008.4 |
| 20260505162119 | 80 | 200 | 9.0 | 19.0 | 0.00 | 0.00 | 0.00 | 44 | 1008.3 |
| 20260505162013 | 80 | 231 | 9.0 | 19.0 | 0.00 | 0.00 | 0.00 | 45 | 1008.4 |
| 20260505161913 | 80 | 195 | 10.0 | 19.0 | 0.00 | 0.00 | 0.00 | 45 | 1008.4 |
| 20260505161806 | 80 | 225 | 9.0 | 19.0 | 0.00 | 0.00 | 0.00 | 43 | 1008.5 |
| 20260505161707 | 80 | 246 | 9.0 | 19.0 | 0.00 | 0.00 | 0.00 | 46 | 1008.4 |
| 20260505161600 | 79 | 172 | 8.0 | 19.0 | 0.00 | 0.00 | 0.00 | 46 | 1008.4 |
| 20260505161520 | 79 | 196 | 6.0 | 16.0 | 0.00 | 0.00 | 0.00 | 47 | 1008.5 |
| 20260505161515 | 79 | 233 | 8.0 | 19.0 | 0.00 | 0.00 | 0.00 | 43 | 1008.3 |
| 20260505161509 | 79 | 209 | 8.0 | 19.0 | 0.00 | 0.00 | 0.00 | 44 | 1008.4 |
| 20260505161453 | 79 | 215 | 8.0 | 19.0 | 0.00 | 0.00 | 0.00 | 45 | 1008.3 |
| 20260505161217 | 79 | 253 | 7.0 | 19.0 | 0.00 | 0.00 | 0.00 | 43 | 1008.5 |
| 20260505161059 | 79 | 200 | 6.0 | 17.0 | 0.00 | 0.00 | 0.00 | 45 | 1008.6 |
| 20260505160843 | 79 | 267 | 5.0 | 16.0 | 0.00 | 0.00 | 0.00 | 47 | 1008.5 |
| 20260505160737 | 79 | 251 | 5.0 | 16.0 | 0.00 | 0.00 | 0.00 | 48 | 1008.5 |
| 20260505160637 | 79 | 252 | 6.0 | 16.0 | 0.00 | 0.00 | 0.00 | 48 | 1008.5 |
| 20260505160531 | 79 | 254 | 6.0 | 16.0 | 0.00 | 0.00 | 0.00 | 47 | 1008.5 |
| 20260505160430 | 79 | 243 | 6.0 | 16.0 | 0.00 | 0.00 | 0.00 | 46 | 1008.5 |
| 20260505160326 | 79 | 254 | 7.0 | 16.0 | 0.00 | 0.00 | 0.00 | 47 | 1008.6 |
| 20260505160225 | 79 | 242 | 7.0 | 16.0 | 0.00 | 0.00 | 0.00 | 47 | 1008.6 |
| 20260505160119 | 79 | 182 | 7.0 | 16.0 | 0.00 | 0.00 | 0.00 | 49 | 1008.5 |
| 20260505153301 | 78 | 205 | 9.0 | 18.0 | 0.00 | 0.00 | 0.00 | 48 | 1008.7 |
| 20260505153155 | 78 | 202 | 10.0 | 18.0 | 0.00 | 0.00 | 0.00 | 47 | 1008.8 |
| 20260505153055 | 78 | 205 | 10.0 | 18.0 | 0.00 | 0.00 | 0.00 | 49 | 1008.7 |
| 20260505152950 | 78 | 208 | 10.0 | 18.0 | 0.00 | 0.00 | 0.00 | 48 | 1008.7 |
| 20260505152905 | 78 | 231 | 9.0 | 18.0 | 0.00 | 0.00 | 0.00 | 49 | 1008.8 |
| 20260505152859 | 78 | 221 | 10.0 | 18.0 | 0.00 | 0.00 | 0.00 | 48 | 1008.7 |
| 20260505152645 | 78 | 189 | 9.0 | 18.0 | 0.00 | 0.00 | 0.00 | 47 | 1008.8 |
| 20260505152601 | 78 | 184 | 8.0 | 18.0 | 0.00 | 0.00 | 0.00 | 48 | 1008.7 |
| 20260505152552 | 78 | 177 | 9.0 | 18.0 | 0.00 | 0.00 | 0.00 | 50 | 1008.8 |
| 20260505152332 | 78 | 170 | 8.0 | 18.0 | 0.00 | 0.00 | 0.00 | 47 | 1008.8 |
| 20260505152232 | 78 | 204 | 8.0 | 17.0 | 0.00 | 0.00 | 0.00 | 48 | 1008.7 |
| 20260505152124 | 78 | 222 | 7.0 | 16.0 | 0.00 | 0.00 | 0.00 | 48 | 1008.7 |
| 20260505152025 | 78 | 192 | 7.0 | 16.0 | 0.00 | 0.00 | 0.00 | 48 | 1008.7 |
| 20260505151918 | 78 | 180 | 7.0 | 16.0 | 0.00 | 0.00 | 0.00 | 48 | 1008.7 |
| 20260505151900 | 77 | 216 | 8.0 | 16.0 | 0.00 | 0.00 | 0.00 | 50 | 1008.7 |
| 20260505151849 | 78 | 187 | 8.0 | 16.0 | 0.00 | 0.00 | 0.00 | 50 | 1008.7 |
| 20260505151727 | 78 | 209 | 8.0 | 16.0 | 0.00 | 0.00 | 0.00 | 51 | 1008.7 |
| 20260505151506 | 77 | 211 | 8.0 | 16.0 | 0.00 | 0.00 | 0.00 | 52 | 1008.7 |
| 20260505151423 | 77 | 217 | 8.0 | 16.0 | 0.00 | 0.00 | 0.00 | 48 | 1008.8 |
| 20260505151417 | 77 | 261 | 8.0 | 16.0 | 0.00 | 0.00 | 0.00 | 51 | 1008.7 |
| 20260505151201 | 77 | 186 | 8.0 | 16.0 | 0.00 | 0.00 | 0.00 | 48 | 1008.8 |
| 20260505151054 | 77 | 244 | 7.0 | 16.0 | 0.00 | 0.00 | 0.00 | 49 | 1008.8 |
| 20260505150955 | 77 | 199 | 7.0 | 16.0 | 0.00 | 0.00 | 0.00 | 48 | 1008.8 |
| 20260505150849 | 77 | 240 | 7.0 | 14.0 | 0.00 | 0.00 | 0.00 | 48 | 1008.7 |
| 20260505150749 | 77 | 250 | 7.0 | 13.0 | 0.00 | 0.00 | 0.00 | 48 | 1008.7 |
| 20260505150643 | 77 | 254 | 6.0 | 13.0 | 0.00 | 0.00 | 0.00 | 49 | 1008.7 |
| 20260505150543 | 77 | 226 | 6.0 | 13.0 | 0.00 | 0.00 | 0.00 | 51 | 1008.7 |
| 20260505150437 | 77 | 230 | 6.0 | 13.0 | 0.00 | 0.00 | 0.00 | 50 | 1008.7 |
| 20260505150338 | 77 | 194 | 6.0 | 13.0 | 0.00 | 0.00 | 0.00 | 49 | 1008.7 |
| 20260505150231 | 77 | 252 | 7.0 | 13.0 | 0.00 | 0.00 | 0.00 | 52 | 1008.7 |
| 20260505150131 | 77 | 238 | 7.0 | 13.0 | 0.00 | 0.00 | 0.00 | 50 | 1008.8 |
| 20260505140550 | 72 | 223 | 6.0 | 12.0 | 0.00 | 0.00 | 0.00 | 58 | 1009.3 |
| 20260505140449 | 72 | 194 | 7.0 | 12.0 | 0.00 | 0.00 | 0.00 | 58 | 1009.3 |
| 20260505140344 | 72 | 223 | 7.0 | 12.0 | 0.00 | 0.00 | 0.00 | 56 | 1009.3 |
| 20260505140243 | 72 | 176 | 6.0 | 12.0 | 0.00 | 0.00 | 0.00 | 57 | 1009.3 |
| 20260505140137 | 72 | 177 | 6.0 | 12.0 | 0.00 | 0.00 | 0.00 | 57 | 1009.3 |
| 20260505130311 | 65 | 194 | 1.0 | 3.0 | 0.00 | 0.00 | 0.00 | 69 | 1009.8 |
| 20260505130205 | 65 | 194 | 1.0 | 3.0 | 0.00 | 0.00 | 0.00 | 69 | 1009.8 |
| 20260505130105 | 65 | 194 | 1.0 | 5.0 | 0.00 | 0.00 | 0.00 | 69 | 1009.8 |
| 20260505125035 | 65 | 191 | 2.0 | 5.0 | 0.00 | 0.00 | 0.00 | 70 | 1009.8 |
| 20260505124952 | 64 | 191 | 2.0 | 5.0 | 0.00 | 0.00 | 0.00 | 71 | 1009.9 |
| 20260505124943 | 64 | 191 | 2.0 | 5.0 | 0.00 | 0.00 | 0.00 | 71 | 1009.8 |
| 20260505124743 | 64 | 190 | 2.0 | 5.0 | 0.00 | 0.00 | 0.00 | 71 | 1009.8 |
| 20260505124736 | 64 | 190 | 2.0 | 5.0 | 0.00 | 0.00 | 0.00 | 71 | 1009.9 |
| 20260505124518 | 64 | 190 | 2.0 | 5.0 | 0.00 | 0.00 | 0.00 | 71 | 1009.9 |
| 20260505124417 | 64 | 190 | 2.0 | 5.0 | 0.00 | 0.00 | 0.00 | 71 | 1009.9 |
| 20260505124312 | 64 | 190 | 2.0 | 5.0 | 0.00 | 0.00 | 0.00 | 72 | 1009.9 |
| 20260505124211 | 64 | 190 | 2.0 | 5.0 | 0.00 | 0.00 | 0.00 | 72 | 1009.9 |
| 20260505124106 | 64 | 190 | 2.0 | 5.0 | 0.00 | 0.00 | 0.00 | 72 | 1009.9 |
| 20260505124005 | 64 | 190 | 2.0 | 5.0 | 0.00 | 0.00 | 0.00 | 72 | 1009.9 |
| 20260505123858 | 64 | 191 | 2.0 | 5.0 | 0.00 | 0.00 | 0.00 | 72 | 1009.9 |
| 20260505123759 | 64 | 191 | 2.0 | 6.0 | 0.00 | 0.00 | 0.00 | 72 | 1009.9 |
| 20260505123654 | 63 | 191 | 2.0 | 6.0 | 0.00 | 0.00 | 0.00 | 72 | 1009.8 |
| 20260505123553 | 63 | 190 | 2.0 | 6.0 | 0.00 | 0.00 | 0.00 | 72 | 1009.9 |
| 20260505123448 | 63 | 190 | 2.0 | 6.0 | 0.00 | 0.00 | 0.00 | 72 | 1009.8 |
| 20260505123403 | 63 | 190 | 3.0 | 6.0 | 0.00 | 0.00 | 0.00 | 72 | 1009.8 |
| 20260505123356 | 63 | 190 | 2.0 | 6.0 | 0.00 | 0.00 | 0.00 | 73 | 1009.8 |
| 20260505123220 | 63 | 190 | 3.0 | 6.0 | 0.00 | 0.00 | 0.00 | 73 | 1009.9 |
| 20260505123216 | 63 | 198 | 3.0 | 6.0 | 0.00 | 0.00 | 0.00 | 73 | 1009.8 |
| 20260505123206 | 63 | 190 | 3.0 | 6.0 | 0.00 | 0.00 | 0.00 | 72 | 1009.8 |
| 20260505122830 | 63 | 199 | 3.0 | 6.0 | 0.00 | 0.00 | 0.00 | 73 | 1009.8 |
| 20260505122729 | 63 | 199 | 2.0 | 6.0 | 0.00 | 0.00 | 0.00 | 73 | 1009.8 |
| 20260505122623 | 63 | 202 | 2.0 | 6.0 | 0.00 | 0.00 | 0.00 | 73 | 1009.9 |
| 20260505122540 | 62 | 202 | 2.0 | 6.0 | 0.00 | 0.00 | 0.00 | 73 | 1009.9 |
| 20260505122533 | 63 | 202 | 2.0 | 6.0 | 0.00 | 0.00 | 0.00 | 73 | 1009.9 |
| 20260505122318 | 62 | 202 | 2.0 | 6.0 | 0.00 | 0.00 | 0.00 | 74 | 1009.9 |
| 20260505122233 | 62 | 202 | 2.0 | 6.0 | 0.00 | 0.00 | 0.00 | 75 | 1009.8 |
| 20260505122226 | 62 | 202 | 2.0 | 6.0 | 0.00 | 0.00 | 0.00 | 74 | 1009.9 |
| 20260505122004 | 62 | 203 | 2.0 | 6.0 | 0.00 | 0.00 | 0.00 | 75 | 1009.9 |
| 20260505121905 | 62 | 206 | 2.0 | 6.0 | 0.00 | 0.00 | 0.00 | 76 | 1009.8 |
| 20260505121758 | 62 | 226 | 2.0 | 5.0 | 0.00 | 0.00 | 0.00 | 77 | 1009.8 |
| 20260505121659 | 62 | 226 | 2.0 | 5.0 | 0.00 | 0.00 | 0.00 | 77 | 1009.8 |
| 20260505121552 | 62 | 226 | 2.0 | 5.0 | 0.00 | 0.00 | 0.00 | 77 | 1009.7 |
| 20260505121453 | 62 | 226 | 2.0 | 5.0 | 0.00 | 0.00 | 0.00 | 78 | 1009.7 |
| 20260505121410 | 61 | 226 | 2.0 | 5.0 | 0.00 | 0.00 | 0.00 | 77 | 1009.8 |
| 20260505121401 | 61 | 226 | 2.0 | 5.0 | 0.00 | 0.00 | 0.00 | 78 | 1009.8 |
| 20260505121141 | 61 | 226 | 2.0 | 5.0 | 0.00 | 0.00 | 0.00 | 77 | 1009.8 |
| 20260505121041 | 61 | 227 | 2.0 | 4.0 | 0.00 | 0.00 | 0.00 | 78 | 1009.8 |
| 20260505120936 | 61 | 227 | 2.0 | 4.0 | 0.00 | 0.00 | 0.00 | 78 | 1009.8 |
| 20260505120852 | 61 | 227 | 2.0 | 4.0 | 0.00 | 0.00 | 0.00 | 79 | 1009.8 |
| 20260505120844 | 61 | 227 | 2.0 | 4.0 | 0.00 | 0.00 | 0.00 | 79 | 1009.8 |
| 20260505120630 | 60 | 227 | 2.0 | 4.0 | 0.00 | 0.00 | 0.00 | 79 | 1009.8 |
| 20260505120522 | 60 | 227 | 2.0 | 4.0 | 0.00 | 0.00 | 0.00 | 79 | 1009.7 |
| 20260505120423 | 60 | 228 | 2.0 | 4.0 | 0.00 | 0.00 | 0.00 | 80 | 1009.8 |
| 20260505120316 | 60 | 228 | 2.0 | 4.0 | 0.00 | 0.00 | 0.00 | 80 | 1009.8 |
| 20260505120217 | 60 | 228 | 2.0 | 5.0 | 0.00 | 0.00 | 0.00 | 80 | 1009.7 |
| 20260505120110 | 60 | 228 | 2.0 | 5.0 | 0.00 | 0.00 | 0.00 | 80 | 1009.7 |
| 20260505120030 | 60 | 228 | 2.0 | 5.0 | 0.00 | 0.00 | 0.00 | 81 | 1009.7 |
| 20260505120024 | 60 | 228 | 2.0 | 5.0 | 0.00 | 0.00 | 0.00 | 81 | 1009.8 |
| 20260505115805 | 60 | 228 | 2.0 | 5.0 | 0.00 | 0.00 | 0.00 | 82 | 1009.8 |
| 20260505115659 | 59 | 228 | 2.0 | 5.0 | 0.00 | 0.00 | 0.00 | 82 | 1009.7 |
| 20260505115639 | 59 | 228 | 2.0 | 5.0 | 0.00 | 0.00 | 0.00 | 83 | 1009.7 |
| 20260505115628 | 59 | 228 | 2.0 | 5.0 | 0.00 | 0.00 | 0.00 | 82 | 1009.8 |
| 20260505115509 | 59 | 228 | 2.0 | 5.0 | 0.00 | 0.00 | 0.00 | 83 | 1009.7 |
| 20260505115246 | 59 | 228 | 2.0 | 5.0 | 0.00 | 0.00 | 0.00 | 83 | 1009.7 |
| 20260505115147 | 58 | 228 | 2.0 | 5.0 | 0.00 | 0.00 | 0.00 | 83 | 1009.7 |
| 20260505115041 | 58 | 228 | 2.0 | 5.0 | 0.00 | 0.00 | 0.00 | 84 | 1009.7 |
| 20260505114941 | 58 | 228 | 2.0 | 5.0 | 0.00 | 0.00 | 0.00 | 84 | 1009.7 |
| 20260505114835 | 58 | 228 | 2.0 | 5.0 | 0.00 | 0.00 | 0.00 | 84 | 1009.7 |
| 20260505114735 | 58 | 229 | 2.0 | 5.0 | 0.00 | 0.00 | 0.00 | 84 | 1009.6 |
| 20260505114628 | 58 | 229 | 2.0 | 5.0 | 0.00 | 0.00 | 0.00 | 84 | 1009.6 |
| 20260505114529 | 58 | 229 | 2.0 | 5.0 | 0.00 | 0.00 | 0.00 | 84 | 1009.6 |
| 20260505114424 | 58 | 229 | 2.0 | 5.0 | 0.00 | 0.00 | 0.00 | 84 | 1009.6 |
| 20260505114323 | 58 | 229 | 2.0 | 5.0 | 0.00 | 0.00 | 0.00 | 84 | 1009.6 |
| 20260505114216 | 58 | 229 | 2.0 | 4.0 | 0.00 | 0.00 | 0.00 | 85 | 1009.6 |
| 20260505114118 | 58 | 237 | 2.0 | 4.0 | 0.00 | 0.00 | 0.00 | 85 | 1009.6 |
| 20260505114010 | 58 | 260 | 2.0 | 4.0 | 0.00 | 0.00 | 0.00 | 86 | 1009.6 |
| 20260505113911 | 58 | 261 | 2.0 | 4.0 | 0.00 | 0.00 | 0.00 | 86 | 1009.5 |
| 20260505113806 | 58 | 261 | 1.0 | 4.0 | 0.00 | 0.00 | 0.00 | 87 | 1009.5 |
| 20260505113705 | 58 | 261 | 1.0 | 4.0 | 0.00 | 0.00 | 0.00 | 87 | 1009.5 |
| 20260505113559 | 57 | 261 | 1.0 | 4.0 | 0.00 | 0.00 | 0.00 | 87 | 1009.6 |
| 20260505113459 | 57 | 261 | 1.0 | 4.0 | 0.00 | 0.00 | 0.00 | 86 | 1009.5 |
| 20260505113353 | 57 | 261 | 1.0 | 4.0 | 0.00 | 0.00 | 0.00 | 85 | 1009.5 |
| 20260505113253 | 57 | 261 | 1.0 | 4.0 | 0.00 | 0.00 | 0.00 | 85 | 1009.5 |
| 20260505113147 | 56 | 293 | 0.0 | 3.0 | 0.00 | 0.00 | 0.00 | 84 | 1009.4 |
| 20260505113047 | 56 | 294 | 0.0 | 3.0 | 0.00 | 0.00 | 0.00 | 83 | 1009.4 |
| 20260505112942 | 56 | 309 | 0.0 | 1.0 | 0.00 | 0.00 | 0.00 | 83 | 1009.4 |
| 20260505112841 | 55 | 309 | 0.0 | 1.0 | 0.00 | 0.00 | 0.00 | 83 | 1009.5 |
| 20260505112735 | 55 | 309 | 0.0 | 1.0 | 0.00 | 0.00 | 0.00 | 83 | 1009.4 |
| 20260505112635 | 55 | 309 | 0.0 | 1.0 | 0.00 | 0.00 | 0.00 | 83 | 1009.4 |
| 20260505112528 | 54 | 309 | 0.0 | 1.0 | 0.00 | 0.00 | 0.00 | 83 | 1009.3 |
| 20260505112429 | 54 | 309 | 0.0 | 1.0 | 0.00 | 0.00 | 0.00 | 83 | 1009.4 |
| 20260505112322 | 54 | 309 | 0.0 | 1.0 | 0.00 | 0.00 | 0.00 | 82 | 1009.4 |
| 20260505112239 | 53 | 309 | 0.0 | 1.0 | 0.00 | 0.00 | 0.00 | 81 | 1009.4 |
| 20260505112233 | 54 | 309 | 0.0 | 1.0 | 0.00 | 0.00 | 0.00 | 82 | 1009.4 |
| 20260505112017 | 53 | 309 | 0.0 | 1.0 | 0.00 | 0.00 | 0.00 | 81 | 1009.4 |
| 20260505111910 | 53 | 309 | 0.0 | 1.0 | 0.00 | 0.00 | 0.00 | 81 | 1009.4 |
| 20260505111826 | 52 | 309 | 0.0 | 1.0 | 0.00 | 0.00 | 0.00 | 81 | 1009.4 |
| 20260505111820 | 53 | 309 | 0.0 | 1.0 | 0.00 | 0.00 | 0.00 | 80 | 1009.4 |
| 20260505111621 | 52 | 309 | 0.0 | 2.0 | 0.00 | 0.00 | 0.00 | 81 | 1009.4 |
| 20260505111614 | 52 | 309 | 0.0 | 1.0 | 0.00 | 0.00 | 0.00 | 81 | 1009.3 |
| 20260505111400 | 51 | 309 | 0.0 | 2.0 | 0.00 | 0.00 | 0.00 | 81 | 1009.4 |
| 20260505111252 | 51 | 309 | 0.0 | 2.0 | 0.00 | 0.00 | 0.00 | 81 | 1009.4 |
| 20260505111208 | 51 | 309 | 0.0 | 2.0 | 0.00 | 0.00 | 0.00 | 82 | 1009.3 |
| 20260505111202 | 51 | 309 | 0.0 | 2.0 | 0.00 | 0.00 | 0.00 | 82 | 1009.3 |
| 20260505110947 | 50 | 309 | 0.0 | 2.0 | 0.00 | 0.00 | 0.00 | 82 | 1009.2 |
| 20260505110918 | 50 | 309 | 0.0 | 2.0 | 0.00 | 0.00 | 0.00 | 82 | 1009.3 |
| 20260505110913 | 49 | 309 | 0.0 | 2.0 | 0.00 | 0.00 | 0.00 | 83 | 1009.3 |
| 20260505110904 | 50 | 309 | 0.0 | 2.0 | 0.00 | 0.00 | 0.00 | 82 | 1009.2 |
| 20260505110535 | 49 | 309 | 0.0 | 2.0 | 0.00 | 0.00 | 0.00 | 83 | 1009.3 |
| 20260505110429 | 49 | 309 | 1.0 | 2.0 | 0.00 | 0.00 | 0.00 | 84 | 1009.3 |
| 20260505110329 | 49 | 309 | 1.0 | 2.0 | 0.00 | 0.00 | 0.00 | 84 | 1009.4 |
| 20260505110223 | 49 | 309 | 1.0 | 2.0 | 0.00 | 0.00 | 0.00 | 84 | 1009.3 |
| 20260505110123 | 49 | 309 | 1.0 | 2.0 | 0.00 | 0.00 | 0.00 | 84 | 1009.4 |
| 20260505102129 | 49 | 309 | 2.0 | 4.0 | 0.00 | 0.00 | 0.00 | 86 | 1008.9 |
| 20260505102022 | 49 | 309 | 2.0 | 4.0 | 0.00 | 0.00 | 0.00 | 85 | 1008.9 |
| 20260505102001 | 49 | 309 | 2.0 | 4.0 | 0.00 | 0.00 | 0.00 | 85 | 1008.9 |
| 20260505101957 | 49 | 309 | 2.0 | 4.0 | 0.00 | 0.00 | 0.00 | 85 | 1008.9 |
| 20260505101947 | 49 | 309 | 2.0 | 4.0 | 0.00 | 0.00 | 0.00 | 85 | 1008.9 |
| 20260505101610 | 48 | 309 | 2.0 | 4.0 | 0.00 | 0.00 | 0.00 | 85 | 1008.9 |
| 20260505101511 | 48 | 309 | 2.0 | 4.0 | 0.00 | 0.00 | 0.00 | 85 | 1009.0 |
| 20260505101406 | 48 | 309 | 2.0 | 4.0 | 0.00 | 0.00 | 0.00 | 85 | 1009.1 |
| 20260505101304 | 48 | 306 | 2.0 | 4.0 | 0.00 | 0.00 | 0.00 | 85 | 1009.1 |
| 20260505101159 | 48 | 304 | 2.0 | 4.0 | 0.00 | 0.00 | 0.00 | 85 | 1009.1 |
| 20260505101057 | 48 | 304 | 2.0 | 4.0 | 0.00 | 0.00 | 0.00 | 85 | 1009.0 |
| 20260505100952 | 48 | 304 | 2.0 | 4.0 | 0.00 | 0.00 | 0.00 | 85 | 1009.1 |
| 20260505100851 | 48 | 304 | 2.0 | 4.0 | 0.00 | 0.00 | 0.00 | 85 | 1009.1 |
| 20260505100744 | 48 | 304 | 2.0 | 4.0 | 0.00 | 0.00 | 0.00 | 85 | 1009.0 |
| 20260505100645 | 48 | 304 | 2.0 | 4.0 | 0.00 | 0.00 | 0.00 | 85 | 1009.0 |
| 20260505100602 | 48 | 304 | 2.0 | 4.0 | 0.00 | 0.00 | 0.00 | 85 | 1008.9 |
| 20260505100553 | 48 | 304 | 2.0 | 4.0 | 0.00 | 0.00 | 0.00 | 85 | 1008.8 |
| 20260505100333 | 48 | 304 | 2.0 | 4.0 | 0.00 | 0.00 | 0.00 | 85 | 1008.8 |
| 20260505100249 | 48 | 304 | 2.0 | 4.0 | 0.00 | 0.00 | 0.00 | 86 | 1008.7 |
| 20260505100242 | 48 | 304 | 2.0 | 4.0 | 0.00 | 0.00 | 0.00 | 86 | 1008.7 |
| 20260505100027 | 48 | 304 | 2.0 | 4.0 | 0.00 | 0.00 | 0.00 | 86 | 1008.8 |
| 20260505095920 | 48 | 304 | 2.0 | 4.0 | 0.00 | 0.00 | 0.00 | 86 | 1008.7 |
| 20260505095821 | 48 | 304 | 2.0 | 4.0 | 0.00 | 0.00 | 0.00 | 86 | 1008.7 |
| 20260505095716 | 48 | 304 | 2.0 | 4.0 | 0.00 | 0.00 | 0.00 | 86 | 1008.6 |
| 20260505095615 | 48 | 304 | 2.0 | 4.0 | 0.00 | 0.00 | 0.00 | 86 | 1008.6 |
| 20260505095509 | 48 | 304 | 2.0 | 4.0 | 0.00 | 0.00 | 0.00 | 86 | 1008.7 |
| 20260505095409 | 48 | 304 | 2.0 | 4.0 | 0.00 | 0.00 | 0.00 | 86 | 1008.7 |
| 20260505095304 | 48 | 304 | 2.0 | 4.0 | 0.00 | 0.00 | 0.00 | 86 | 1008.7 |
| 20260505095202 | 48 | 304 | 2.0 | 4.0 | 0.00 | 0.00 | 0.00 | 86 | 1008.7 |
| 20260505095056 | 48 | 304 | 2.0 | 4.0 | 0.00 | 0.00 | 0.00 | 86 | 1008.7 |
| 20260505094957 | 48 | 304 | 2.0 | 4.0 | 0.00 | 0.00 | 0.00 | 86 | 1008.7 |
| 20260505094850 | 48 | 304 | 2.0 | 4.0 | 0.00 | 0.00 | 0.00 | 86 | 1008.7 |
| 20260505094751 | 48 | 304 | 2.0 | 4.0 | 0.00 | 0.00 | 0.00 | 86 | 1008.7 |
| 20260505094644 | 48 | 304 | 1.0 | 4.0 | 0.00 | 0.00 | 0.00 | 86 | 1008.7 |
| 20260505094601 | 48 | 304 | 1.0 | 4.0 | 0.00 | 0.00 | 0.00 | 86 | 1008.7 |
| 20260505094555 | 48 | 304 | 1.0 | 4.0 | 0.00 | 0.00 | 0.00 | 86 | 1008.7 |
| 20260505094339 | 48 | 304 | 1.0 | 4.0 | 0.00 | 0.00 | 0.00 | 86 | 1008.7 |
| 20260505094233 | 48 | 304 | 1.0 | 4.0 | 0.00 | 0.00 | 0.00 | 86 | 1008.7 |
| 20260505094133 | 48 | 304 | 1.0 | 4.0 | 0.00 | 0.00 | 0.00 | 86 | 1008.8 |
| 20260505094027 | 48 | 304 | 1.0 | 4.0 | 0.00 | 0.00 | 0.00 | 86 | 1008.8 |
| 20260505093927 | 48 | 304 | 1.0 | 4.0 | 0.00 | 0.00 | 0.00 | 86 | 1008.8 |
| 20260505093820 | 48 | 304 | 2.0 | 4.0 | 0.00 | 0.00 | 0.00 | 87 | 1008.8 |
| 20260505093721 | 48 | 304 | 2.0 | 4.0 | 0.00 | 0.00 | 0.00 | 87 | 1008.8 |
| 20260505093614 | 48 | 304 | 2.0 | 4.0 | 0.00 | 0.00 | 0.00 | 87 | 1008.8 |
| 20260505093515 | 48 | 304 | 2.0 | 4.0 | 0.00 | 0.00 | 0.00 | 87 | 1008.8 |
| 20260505093408 | 48 | 304 | 3.0 | 4.0 | 0.00 | 0.00 | 0.00 | 87 | 1008.8 |
| 20260505093309 | 49 | 304 | 3.0 | 4.0 | 0.00 | 0.00 | 0.00 | 87 | 1008.8 |
| 20260505093202 | 49 | 304 | 3.0 | 4.0 | 0.00 | 0.00 | 0.00 | 87 | 1008.8 |
| 20260505093119 | 49 | 306 | 3.0 | 4.0 | 0.00 | 0.00 | 0.00 | 87 | 1008.7 |
| 20260505093113 | 49 | 306 | 3.0 | 4.0 | 0.00 | 0.00 | 0.00 | 87 | 1008.7 |
| 20260505092858 | 49 | 307 | 3.0 | 4.0 | 0.00 | 0.00 | 0.00 | 87 | 1008.7 |
| 20260505092750 | 49 | 306 | 3.0 | 4.0 | 0.00 | 0.00 | 0.00 | 87 | 1008.6 |
| 20260505092651 | 49 | 306 | 2.0 | 4.0 | 0.00 | 0.00 | 0.00 | 87 | 1008.6 |
| 20260505092546 | 49 | 306 | 2.0 | 4.0 | 0.00 | 0.00 | 0.00 | 87 | 1008.6 |
| 20260505092445 | 49 | 306 | 2.0 | 4.0 | 0.00 | 0.00 | 0.00 | 87 | 1008.7 |
| 20260505092339 | 49 | 306 | 2.0 | 4.0 | 0.00 | 0.00 | 0.00 | 87 | 1008.7 |
| 20260505092239 | 49 | 306 | 2.0 | 4.0 | 0.00 | 0.00 | 0.00 | 87 | 1008.6 |
| 20260505092133 | 49 | 306 | 2.0 | 4.0 | 0.00 | 0.00 | 0.00 | 87 | 1008.6 |
| 20260505092033 | 49 | 306 | 2.0 | 4.0 | 0.00 | 0.00 | 0.00 | 87 | 1008.5 |
| 20260505091926 | 49 | 306 | 2.0 | 4.0 | 0.00 | 0.00 | 0.00 | 87 | 1008.6 |
| 20260505091827 | 49 | 306 | 3.0 | 4.0 | 0.00 | 0.00 | 0.00 | 87 | 1008.6 |
| 20260505091720 | 49 | 306 | 3.0 | 4.0 | 0.00 | 0.00 | 0.00 | 87 | 1008.6 |
| 20260505091621 | 49 | 306 | 3.0 | 4.0 | 0.00 | 0.00 | 0.00 | 87 | 1008.6 |
| 20260505091536 | 49 | 306 | 3.0 | 4.0 | 0.00 | 0.00 | 0.00 | 87 | 1008.6 |
| 20260505091529 | 49 | 306 | 3.0 | 4.0 | 0.00 | 0.00 | 0.00 | 87 | 1008.6 |
| 20260505091309 | 49 | 306 | 3.0 | 4.0 | 0.00 | 0.00 | 0.00 | 87 | 1008.6 |
| 20260505091209 | 49 | 306 | 3.0 | 4.0 | 0.00 | 0.00 | 0.00 | 87 | 1008.6 |
| 20260505091104 | 49 | 306 | 3.0 | 4.0 | 0.00 | 0.00 | 0.00 | 87 | 1008.6 |
| 20260505091002 | 49 | 306 | 3.0 | 4.0 | 0.00 | 0.00 | 0.00 | 87 | 1008.6 |
| 20260505090856 | 49 | 305 | 2.0 | 4.0 | 0.00 | 0.00 | 0.00 | 87 | 1008.6 |
| 20260505090758 | 49 | 304 | 2.0 | 4.0 | 0.00 | 0.00 | 0.00 | 87 | 1008.5 |
| 20260505090713 | 49 | 304 | 2.0 | 4.0 | 0.00 | 0.00 | 0.00 | 87 | 1008.6 |
| 20260505090705 | 49 | 304 | 2.0 | 4.0 | 0.00 | 0.00 | 0.00 | 87 | 1008.5 |
| 20260505090445 | 49 | 304 | 2.0 | 4.0 | 0.00 | 0.00 | 0.00 | 87 | 1008.5 |
| 20260505090345 | 49 | 304 | 2.0 | 4.0 | 0.00 | 0.00 | 0.00 | 87 | 1008.6 |
| 20260505090239 | 49 | 304 | 2.0 | 4.0 | 0.00 | 0.00 | 0.00 | 87 | 1008.6 |
| 20260505090139 | 49 | 304 | 2.0 | 4.0 | 0.00 | 0.00 | 0.00 | 87 | 1008.5 |
| 20260505090032 | 49 | 302 | 2.0 | 4.0 | 0.00 | 0.00 | 0.00 | 87 | 1008.5 |
| 20260505085933 | 49 | 301 | 1.0 | 3.0 | 0.00 | 0.00 | 0.00 | 87 | 1008.5 |
| 20260505085828 | 49 | 301 | 1.0 | 3.0 | 0.00 | 0.00 | 0.00 | 87 | 1008.5 |
| 20260505085727 | 50 | 301 | 1.0 | 3.0 | 0.00 | 0.00 | 0.00 | 87 | 1008.5 |
| 20260505085621 | 50 | 301 | 1.0 | 3.0 | 0.00 | 0.00 | 0.00 | 87 | 1008.5 |
| 20260505085521 | 50 | 301 | 1.0 | 3.0 | 0.00 | 0.00 | 0.00 | 87 | 1008.5 |
| 20260505085416 | 50 | 301 | 1.0 | 3.0 | 0.00 | 0.00 | 0.00 | 87 | 1008.5 |
| 20260505085315 | 50 | 301 | 1.0 | 3.0 | 0.00 | 0.00 | 0.00 | 87 | 1008.4 |
| 20260505085208 | 50 | 301 | 1.0 | 3.0 | 0.00 | 0.00 | 0.00 | 87 | 1008.5 |
| 20260505085109 | 50 | 301 | 1.0 | 3.0 | 0.00 | 0.00 | 0.00 | 87 | 1008.4 |
| 20260505085024 | 50 | 301 | 2.0 | 3.0 | 0.00 | 0.00 | 0.00 | 87 | 1008.4 |
| 20260505085016 | 50 | 301 | 2.0 | 3.0 | 0.00 | 0.00 | 0.00 | 87 | 1008.5 |
| 20260505084756 | 50 | 301 | 2.0 | 3.0 | 0.00 | 0.00 | 0.00 | 87 | 1008.4 |
| 20260505084714 | 50 | 301 | 2.0 | 3.0 | 0.00 | 0.00 | 0.00 | 87 | 1008.4 |
| 20260505084707 | 50 | 301 | 2.0 | 3.0 | 0.00 | 0.00 | 0.00 | 87 | 1008.4 |
| 20260505084451 | 50 | 301 | 2.0 | 3.0 | 0.00 | 0.00 | 0.00 | 87 | 1008.4 |
| 20260505084344 | 50 | 301 | 2.0 | 3.0 | 0.00 | 0.00 | 0.00 | 87 | 1008.4 |
| 20260505084244 | 50 | 301 | 2.0 | 3.0 | 0.00 | 0.00 | 0.00 | 87 | 1008.4 |
| 20260505084138 | 50 | 301 | 2.0 | 3.0 | 0.00 | 0.00 | 0.00 | 86 | 1008.4 |
| 20260505084039 | 50 | 301 | 2.0 | 3.0 | 0.00 | 0.00 | 0.00 | 86 | 1008.5 |
| 20260505083956 | 51 | 301 | 2.0 | 3.0 | 0.00 | 0.00 | 0.00 | 86 | 1008.5 |
| 20260505083949 | 51 | 301 | 2.0 | 3.0 | 0.00 | 0.00 | 0.00 | 86 | 1008.5 |
| 20260505083726 | 51 | 301 | 2.0 | 3.0 | 0.00 | 0.00 | 0.00 | 86 | 1008.5 |
| 20260505083627 | 51 | 301 | 2.0 | 3.0 | 0.00 | 0.00 | 0.00 | 86 | 1008.5 |
| 20260505083520 | 51 | 301 | 1.0 | 3.0 | 0.00 | 0.00 | 0.00 | 86 | 1008.5 |
| 20260505083421 | 51 | 301 | 1.0 | 3.0 | 0.00 | 0.00 | 0.00 | 86 | 1008.5 |
| 20260505083315 | 51 | 301 | 1.0 | 3.0 | 0.00 | 0.00 | 0.00 | 86 | 1008.5 |
| 20260505083215 | 51 | 301 | 1.0 | 3.0 | 0.00 | 0.00 | 0.00 | 86 | 1008.6 |
| 20260505083109 | 51 | 301 | 1.0 | 3.0 | 0.00 | 0.00 | 0.00 | 86 | 1008.6 |
| 20260505083009 | 51 | 301 | 1.0 | 3.0 | 0.00 | 0.00 | 0.00 | 86 | 1008.6 |
| 20260505082904 | 51 | 301 | 1.0 | 3.0 | 0.00 | 0.00 | 0.00 | 86 | 1008.6 |
| 20260505082804 | 51 | 301 | 1.0 | 3.0 | 0.00 | 0.00 | 0.00 | 86 | 1008.6 |
| 20260505082717 | 51 | 301 | 1.0 | 3.0 | 0.00 | 0.00 | 0.00 | 86 | 1008.6 |
| 20260505082710 | 51 | 301 | 1.0 | 3.0 | 0.00 | 0.00 | 0.00 | 86 | 1008.6 |
| 20260505082452 | 51 | 301 | 2.0 | 3.0 | 0.00 | 0.00 | 0.00 | 86 | 1008.6 |
| 20260505082350 | 51 | 301 | 2.0 | 3.0 | 0.00 | 0.00 | 0.00 | 86 | 1008.6 |
| 20260505082323 | 51 | 301 | 2.0 | 3.0 | 0.00 | 0.00 | 0.00 | 86 | 1008.5 |
| 20260505082317 | 51 | 301 | 2.0 | 3.0 | 0.00 | 0.00 | 0.00 | 86 | 1008.4 |
| 20260505082309 | 51 | 301 | 2.0 | 3.0 | 0.00 | 0.00 | 0.00 | 86 | 1008.5 |
| 20260505081939 | 51 | 301 | 2.0 | 3.0 | 0.00 | 0.00 | 0.00 | 86 | 1008.4 |
| 20260505081833 | 51 | 301 | 2.0 | 3.0 | 0.00 | 0.00 | 0.00 | 86 | 1008.4 |
| 20260505081750 | 51 | 301 | 2.0 | 3.0 | 0.00 | 0.00 | 0.00 | 86 | 1008.4 |
| 20260505081744 | 51 | 301 | 2.0 | 3.0 | 0.00 | 0.00 | 0.00 | 86 | 1008.4 |
| 20260505081542 | 51 | 301 | 2.0 | 3.0 | 0.00 | 0.00 | 0.00 | 86 | 1008.4 |
| 20260505081536 | 51 | 301 | 2.0 | 3.0 | 0.00 | 0.00 | 0.00 | 86 | 1008.4 |
| 20260505081320 | 51 | 301 | 2.0 | 3.0 | 0.00 | 0.00 | 0.00 | 86 | 1008.3 |
| 20260505081216 | 51 | 301 | 2.0 | 3.0 | 0.00 | 0.00 | 0.00 | 86 | 1008.4 |
| 20260505081115 | 51 | 301 | 2.0 | 3.0 | 0.00 | 0.00 | 0.00 | 86 | 1008.3 |
| 20260505081008 | 51 | 301 | 1.0 | 3.0 | 0.00 | 0.00 | 0.00 | 86 | 1008.4 |
| 20260505080910 | 51 | 301 | 1.0 | 3.0 | 0.00 | 0.00 | 0.00 | 85 | 1008.4 |
| 20260505080803 | 51 | 301 | 1.0 | 3.0 | 0.00 | 0.00 | 0.00 | 85 | 1008.4 |
| 20260505080743 | 51 | 301 | 0.0 | 2.0 | 0.00 | 0.00 | 0.00 | 85 | 1008.3 |
| 20260505080732 | 51 | 301 | 1.0 | 2.0 | 0.00 | 0.00 | 0.00 | 85 | 1008.3 |
| 20260505080610 | 51 | 301 | 0.0 | 2.0 | 0.00 | 0.00 | 0.00 | 85 | 1008.4 |
| 20260505080352 | 51 | 301 | 0.0 | 1.0 | 0.00 | 0.00 | 0.00 | 85 | 1008.4 |
| 20260505080250 | 51 | 301 | 0.0 | 2.0 | 0.00 | 0.00 | 0.00 | 85 | 1008.4 |
| 20260505080144 | 52 | 301 | 0.0 | 2.0 | 0.00 | 0.00 | 0.00 | 85 | 1008.4 |
| 20260505080045 | 52 | 301 | 0.0 | 2.0 | 0.00 | 0.00 | 0.00 | 85 | 1008.4 |
| 20260505075940 | 52 | 301 | 0.0 | 2.0 | 0.00 | 0.00 | 0.00 | 85 | 1008.4 |
| 20260505075839 | 52 | 301 | 0.0 | 2.0 | 0.00 | 0.00 | 0.00 | 85 | 1008.3 |
| 20260505075732 | 52 | 301 | 1.0 | 2.0 | 0.00 | 0.00 | 0.00 | 84 | 1008.3 |
| 20260505075633 | 52 | 301 | 1.0 | 2.0 | 0.00 | 0.00 | 0.00 | 84 | 1008.4 |
| 20260505075526 | 52 | 301 | 0.0 | 2.0 | 0.00 | 0.00 | 0.00 | 84 | 1008.4 |
| 20260505075427 | 52 | 301 | 0.0 | 2.0 | 0.00 | 0.00 | 0.00 | 84 | 1008.4 |
| 20260505075344 | 52 | 301 | 1.0 | 2.0 | 0.00 | 0.00 | 0.00 | 83 | 1008.3 |
| 20260505075335 | 52 | 301 | 1.0 | 2.0 | 0.00 | 0.00 | 0.00 | 83 | 1008.4 |
| 20260505075136 | 52 | 301 | 1.0 | 2.0 | 0.00 | 0.00 | 0.00 | 83 | 1008.3 |
| 20260505075129 | 52 | 301 | 1.0 | 2.0 | 0.00 | 0.00 | 0.00 | 83 | 1008.3 |
| 20260505074908 | 53 | 301 | 1.0 | 2.0 | 0.00 | 0.00 | 0.00 | 84 | 1008.3 |
| 20260505074826 | 53 | 301 | 1.0 | 2.0 | 0.00 | 0.00 | 0.00 | 84 | 1008.3 |
| 20260505074820 | 53 | 301 | 1.0 | 2.0 | 0.00 | 0.00 | 0.00 | 84 | 1008.2 |
| 20260505074655 | 53 | 301 | 1.0 | 4.0 | 0.00 | 0.00 | 0.00 | 83 | 1008.3 |
| 20260505074651 | 53 | 301 | 1.0 | 4.0 | 0.00 | 0.00 | 0.00 | 83 | 1008.2 |
| 20260505074645 | 53 | 301 | 1.0 | 4.0 | 0.00 | 0.00 | 0.00 | 83 | 1008.2 |
| 20260505074636 | 53 | 301 | 1.0 | 4.0 | 0.00 | 0.00 | 0.00 | 84 | 1008.3 |
| 20260505074151 | 53 | 301 | 1.0 | 4.0 | 0.00 | 0.00 | 0.00 | 83 | 1008.3 |
| 20260505074109 | 53 | 301 | 1.0 | 4.0 | 0.00 | 0.00 | 0.00 | 83 | 1008.1 |
| 20260505074101 | 53 | 301 | 1.0 | 4.0 | 0.00 | 0.00 | 0.00 | 83 | 1008.2 |
| 20260505073840 | 53 | 301 | 1.0 | 4.0 | 0.00 | 0.00 | 0.00 | 83 | 1008.2 |
| 20260505073739 | 53 | 301 | 1.0 | 4.0 | 0.00 | 0.00 | 0.00 | 83 | 1008.3 |
| 20260505073632 | 53 | 301 | 1.0 | 4.0 | 0.00 | 0.00 | 0.00 | 82 | 1008.2 |
| 20260505073533 | 53 | 301 | 2.0 | 4.0 | 0.00 | 0.00 | 0.00 | 82 | 1008.2 |
| 20260505073428 | 54 | 301 | 2.0 | 4.0 | 0.00 | 0.00 | 0.00 | 82 | 1008.2 |
| 20260505073327 | 54 | 301 | 2.0 | 4.0 | 0.00 | 0.00 | 0.00 | 82 | 1008.2 |
| 20260505073221 | 54 | 301 | 2.0 | 4.0 | 0.00 | 0.00 | 0.00 | 82 | 1008.2 |
| 20260505073121 | 54 | 301 | 2.0 | 4.0 | 0.00 | 0.00 | 0.00 | 82 | 1008.1 |
| 20260505073036 | 54 | 301 | 3.0 | 4.0 | 0.00 | 0.00 | 0.00 | 82 | 1008.1 |
| 20260505073029 | 54 | 301 | 3.0 | 4.0 | 0.00 | 0.00 | 0.00 | 82 | 1008.1 |
| 20260505072809 | 54 | 301 | 3.0 | 4.0 | 0.00 | 0.00 | 0.00 | 82 | 1008.1 |
| 20260505072708 | 54 | 301 | 3.0 | 4.0 | 0.00 | 0.00 | 0.00 | 82 | 1008.0 |
| 20260505072603 | 54 | 301 | 3.0 | 4.0 | 0.00 | 0.00 | 0.00 | 82 | 1008.0 |
| 20260505072503 | 54 | 301 | 3.0 | 4.0 | 0.00 | 0.00 | 0.00 | 82 | 1008.0 |
| 20260505072420 | 54 | 301 | 2.0 | 4.0 | 0.00 | 0.00 | 0.00 | 82 | 1008.0 |
| 20260505072412 | 54 | 301 | 3.0 | 4.0 | 0.00 | 0.00 | 0.00 | 82 | 1008.0 |
| 20260505072150 | 54 | 301 | 3.0 | 4.0 | 0.00 | 0.00 | 0.00 | 82 | 1008.0 |
| 20260505072051 | 54 | 301 | 3.0 | 4.0 | 0.00 | 0.00 | 0.00 | 82 | 1008.1 |
| 20260505071945 | 54 | 301 | 3.0 | 4.0 | 0.00 | 0.00 | 0.00 | 82 | 1008.0 |
| 20260505071844 | 54 | 301 | 2.0 | 4.0 | 0.00 | 0.00 | 0.00 | 82 | 1008.0 |
| 20260505071801 | 55 | 301 | 2.0 | 4.0 | 0.00 | 0.00 | 0.00 | 82 | 1008.0 |
| 20260505071754 | 54 | 301 | 2.0 | 4.0 | 0.00 | 0.00 | 0.00 | 82 | 1008.0 |
| 20260505071533 | 55 | 301 | 2.0 | 4.0 | 0.00 | 0.00 | 0.00 | 82 | 1008.0 |
| 20260505071433 | 55 | 301 | 1.0 | 3.0 | 0.00 | 0.00 | 0.00 | 82 | 1008.0 |
| 20260505071406 | 54 | 301 | 1.0 | 3.0 | 0.00 | 0.00 | 0.00 | 82 | 1008.0 |
| 20260505071400 | 54 | 301 | 1.0 | 3.0 | 0.00 | 0.00 | 0.00 | 82 | 1008.0 |
| 20260505071351 | 55 | 301 | 1.0 | 3.0 | 0.00 | 0.00 | 0.00 | 82 | 1008.0 |
| 20260505071021 | 54 | 301 | 1.0 | 3.0 | 0.00 | 0.00 | 0.00 | 82 | 1008.0 |
| 20260505070914 | 55 | 301 | 1.0 | 2.0 | 0.00 | 0.00 | 0.00 | 81 | 1008.0 |
| 20260505070815 | 55 | 301 | 1.0 | 2.0 | 0.00 | 0.00 | 0.00 | 81 | 1008.0 |
| 20260505070709 | 55 | 301 | 1.0 | 2.0 | 0.00 | 0.00 | 0.00 | 81 | 1008.1 |
| 20260505070624 | 55 | 301 | 1.0 | 2.0 | 0.00 | 0.00 | 0.00 | 81 | 1008.1 |
| 20260505070617 | 55 | 301 | 1.0 | 2.0 | 0.00 | 0.00 | 0.00 | 81 | 1008.0 |
| 20260505070403 | 55 | 301 | 1.0 | 2.0 | 0.00 | 0.00 | 0.00 | 81 | 1008.1 |
| 20260505070256 | 55 | 301 | 1.0 | 2.0 | 0.00 | 0.00 | 0.00 | 81 | 1008.1 |
| 20260505070157 | 55 | 301 | 1.0 | 2.0 | 0.00 | 0.00 | 0.00 | 81 | 1008.1 |
| 20260505070111 | 55 | 301 | 0.0 | 2.0 | 0.00 | 0.00 | 0.00 | 81 | 1008.1 |
| 20260505070105 | 55 | 301 | 0.0 | 2.0 | 0.00 | 0.00 | 0.00 | 81 | 1008.1 |
| 20260505065845 | 55 | 301 | 0.0 | 2.0 | 0.00 | 0.00 | 0.00 | 81 | 1008.2 |
| 20260505065745 | 55 | 301 | 0.0 | 2.0 | 0.00 | 0.00 | 0.00 | 80 | 1008.1 |
| 20260505065658 | 55 | 301 | 0.0 | 2.0 | 0.00 | 0.00 | 0.00 | 80 | 1008.1 |
| 20260505065652 | 55 | 301 | 0.0 | 2.0 | 0.00 | 0.00 | 0.00 | 80 | 1008.1 |
| 20260505065432 | 55 | 301 | 0.0 | 2.0 | 0.00 | 0.00 | 0.00 | 80 | 1008.1 |
| 20260505065333 | 55 | 301 | 0.0 | 2.0 | 0.00 | 0.00 | 0.00 | 80 | 1008.1 |
| 20260505065226 | 55 | 301 | 0.0 | 2.0 | 0.00 | 0.00 | 0.00 | 80 | 1008.1 |
| 20260505065127 | 55 | 301 | 0.0 | 2.0 | 0.00 | 0.00 | 0.00 | 80 | 1008.1 |
| 20260505065021 | 55 | 301 | 1.0 | 2.0 | 0.00 | 0.00 | 0.00 | 80 | 1008.2 |
| 20260505064920 | 55 | 301 | 0.0 | 2.0 | 0.00 | 0.00 | 0.00 | 80 | 1008.1 |
| 20260505064837 | 55 | 301 | 0.0 | 3.0 | 0.00 | 0.00 | 0.00 | 80 | 1008.1 |
| 20260505064829 | 55 | 301 | 0.0 | 3.0 | 0.00 | 0.00 | 0.00 | 80 | 1008.1 |
| 20260505064609 | 55 | 301 | 0.0 | 3.0 | 0.00 | 0.00 | 0.00 | 80 | 1008.1 |
| 20260505064509 | 56 | 301 | 0.0 | 3.0 | 0.00 | 0.00 | 0.00 | 80 | 1008.1 |
| 20260505064403 | 56 | 301 | 0.0 | 3.0 | 0.00 | 0.00 | 0.00 | 79 | 1008.1 |
| 20260505064303 | 56 | 301 | 0.0 | 3.0 | 0.00 | 0.00 | 0.00 | 79 | 1008.2 |
| 20260505064156 | 56 | 301 | 0.0 | 3.0 | 0.00 | 0.00 | 0.00 | 79 | 1008.2 |
| 20260505064057 | 56 | 301 | 0.0 | 3.0 | 0.00 | 0.00 | 0.00 | 79 | 1008.2 |
| 20260505063950 | 56 | 301 | 0.0 | 3.0 | 0.00 | 0.00 | 0.00 | 79 | 1008.2 |
| 20260505063907 | 56 | 301 | 1.0 | 3.0 | 0.00 | 0.00 | 0.00 | 79 | 1008.2 |
| 20260505063900 | 56 | 301 | 1.0 | 3.0 | 0.00 | 0.00 | 0.00 | 79 | 1008.2 |
| 20260505063645 | 56 | 301 | 1.0 | 4.0 | 0.00 | 0.00 | 0.00 | 79 | 1008.2 |
| 20260505063538 | 56 | 301 | 1.0 | 4.0 | 0.00 | 0.00 | 0.00 | 79 | 1008.2 |
| 20260505063439 | 56 | 301 | 1.0 | 4.0 | 0.00 | 0.00 | 0.00 | 79 | 1008.2 |
| 20260505063332 | 56 | 301 | 1.0 | 4.0 | 0.00 | 0.00 | 0.00 | 79 | 1008.2 |
| 20260505063233 | 56 | 301 | 1.0 | 4.0 | 0.00 | 0.00 | 0.00 | 79 | 1008.2 |
| 20260505063128 | 56 | 301 | 1.0 | 4.0 | 0.00 | 0.00 | 0.00 | 79 | 1008.3 |
| 20260505063122 | 56 | 301 | 1.0 | 4.0 | 0.00 | 0.00 | 0.00 | 78 | 1008.3 |
| 20260505063117 | 56 | 301 | 2.0 | 4.0 | 0.00 | 0.00 | 0.00 | 78 | 1008.3 |
| 20260505063110 | 56 | 301 | 2.0 | 4.0 | 0.00 | 0.00 | 0.00 | 78 | 1008.3 |
| 20260505063100 | 56 | 301 | 1.0 | 4.0 | 0.00 | 0.00 | 0.00 | 78 | 1008.3 |
| 20260505062615 | 56 | 301 | 2.0 | 4.0 | 0.00 | 0.00 | 0.00 | 78 | 1008.3 |
| 20260505062508 | 56 | 300 | 2.0 | 4.0 | 0.00 | 0.00 | 0.00 | 78 | 1008.3 |
| 20260505062409 | 56 | 300 | 2.0 | 4.0 | 0.00 | 0.00 | 0.00 | 78 | 1008.3 |
| 20260505062323 | 56 | 301 | 3.0 | 4.0 | 0.00 | 0.00 | 0.00 | 77 | 1008.3 |
| 20260505062317 | 56 | 300 | 3.0 | 4.0 | 0.00 | 0.00 | 0.00 | 77 | 1008.3 |
| 20260505062135 | 56 | 300 | 3.0 | 4.0 | 0.00 | 0.00 | 0.00 | 77 | 1008.3 |
| 20260505062124 | 56 | 300 | 3.0 | 4.0 | 0.00 | 0.00 | 0.00 | 77 | 1008.3 |
| 20260505062006 | 56 | 300 | 3.0 | 4.0 | 0.00 | 0.00 | 0.00 | 77 | 1008.3 |
| 20260505061751 | 56 | 301 | 3.0 | 4.0 | 0.00 | 0.00 | 0.00 | 77 | 1008.3 |
| 20260505061645 | 56 | 300 | 3.0 | 4.0 | 0.00 | 0.00 | 0.00 | 77 | 1008.2 |
| 20260505061544 | 56 | 300 | 3.0 | 4.0 | 0.00 | 0.00 | 0.00 | 77 | 1008.3 |
| 20260505061502 | 56 | 238 | 2.0 | 4.0 | 0.00 | 0.00 | 0.00 | 77 | 1008.3 |
| 20260505061454 | 56 | 296 | 2.0 | 4.0 | 0.00 | 0.00 | 0.00 | 77 | 1008.3 |
| 20260505061233 | 56 | 221 | 2.0 | 4.0 | 0.00 | 0.00 | 0.00 | 77 | 1008.2 |
| 20260505061133 | 56 | 203 | 1.0 | 3.0 | 0.00 | 0.00 | 0.00 | 77 | 1008.3 |
| 20260505061028 | 56 | 203 | 1.0 | 3.0 | 0.00 | 0.00 | 0.00 | 77 | 1008.3 |
| 20260505060927 | 56 | 202 | 1.0 | 3.0 | 0.00 | 0.00 | 0.00 | 76 | 1008.3 |
| 20260505060820 | 56 | 202 | 1.0 | 3.0 | 0.00 | 0.00 | 0.00 | 76 | 1008.3 |
| 20260505060720 | 56 | 202 | 1.0 | 4.0 | 0.00 | 0.00 | 0.00 | 76 | 1008.3 |
| 20260505060614 | 56 | 202 | 0.0 | 4.0 | 0.00 | 0.00 | 0.00 | 76 | 1008.4 |
| 20260505060515 | 56 | 202 | 0.0 | 4.0 | 0.00 | 0.00 | 0.00 | 75 | 1008.3 |
| 20260505060410 | 56 | 202 | 0.0 | 4.0 | 0.00 | 0.00 | 0.00 | 75 | 1008.3 |
| 20260505060309 | 56 | 202 | 0.0 | 4.0 | 0.00 | 0.00 | 0.00 | 75 | 1008.3 |
| 20260505060205 | 56 | 202 | 0.0 | 4.0 | 0.00 | 0.00 | 0.00 | 75 | 1008.3 |
| 20260505060103 | 56 | 202 | 1.0 | 4.0 | 0.00 | 0.00 | 0.00 | 75 | 1008.3 |
| 20260505055956 | 56 | 202 | 1.0 | 4.0 | 0.00 | 0.00 | 0.00 | 75 | 1008.3 |
| 20260505055857 | 56 | 202 | 1.0 | 4.0 | 0.00 | 0.00 | 0.00 | 75 | 1008.3 |
| 20260505055830 | 57 | 202 | 1.0 | 4.0 | 0.00 | 0.00 | 0.00 | 75 | 1008.4 |
| 20260505055824 | 57 | 202 | 2.0 | 4.0 | 0.00 | 0.00 | 0.00 | 75 | 1008.3 |
| 20260505055815 | 57 | 202 | 1.0 | 4.0 | 0.00 | 0.00 | 0.00 | 75 | 1008.3 |
| 20260505055445 | 57 | 202 | 2.0 | 4.0 | 0.00 | 0.00 | 0.00 | 75 | 1008.3 |
| 20260505055338 | 57 | 202 | 2.0 | 4.0 | 0.00 | 0.00 | 0.00 | 75 | 1008.3 |
| 20260505055239 | 57 | 202 | 2.0 | 4.0 | 0.00 | 0.00 | 0.00 | 75 | 1008.3 |
| 20260505055133 | 57 | 202 | 3.0 | 4.0 | 0.00 | 0.00 | 0.00 | 75 | 1008.3 |
| 20260505055032 | 57 | 202 | 3.0 | 4.0 | 0.00 | 0.00 | 0.00 | 75 | 1008.3 |
| 20260505055005 | 57 | 193 | 2.0 | 4.0 | 0.00 | 0.00 | 0.00 | 75 | 1008.3 |
| 20260505054955 | 57 | 202 | 3.0 | 4.0 | 0.00 | 0.00 | 0.00 | 75 | 1008.3 |
| 20260505054837 | 57 | 202 | 2.0 | 4.0 | 0.00 | 0.00 | 0.00 | 75 | 1008.3 |
| 20260505054621 | 57 | 188 | 2.0 | 4.0 | 0.00 | 0.00 | 0.00 | 75 | 1008.3 |
| 20260505054537 | 57 | 186 | 1.0 | 3.0 | 0.00 | 0.00 | 0.00 | 75 | 1008.3 |
| 20260505054529 | 57 | 187 | 2.0 | 4.0 | 0.00 | 0.00 | 0.00 | 75 | 1008.3 |
| 20260505054308 | 57 | 184 | 1.0 | 3.0 | 0.00 | 0.00 | 0.00 | 75 | 1008.3 |
| 20260505054210 | 56 | 184 | 1.0 | 3.0 | 0.00 | 0.00 | 0.00 | 75 | 1008.3 |
| 20260505054102 | 56 | 184 | 1.0 | 3.0 | 0.00 | 0.00 | 0.00 | 75 | 1008.3 |
| 20260505054019 | 56 | 183 | 0.0 | 2.0 | 0.00 | 0.00 | 0.00 | 75 | 1008.3 |
| 20260505054013 | 56 | 184 | 0.0 | 2.0 | 0.00 | 0.00 | 0.00 | 75 | 1008.3 |
| 20260505053757 | 56 | 183 | 0.0 | 1.0 | 0.00 | 0.00 | 0.00 | 74 | 1008.3 |
| 20260505053650 | 57 | 183 | 0.0 | 1.0 | 0.00 | 0.00 | 0.00 | 74 | 1008.4 |
| 20260505053552 | 57 | 183 | 0.0 | 1.0 | 0.00 | 0.00 | 0.00 | 74 | 1008.4 |
| 20260505053445 | 57 | 183 | 0.0 | 1.0 | 0.00 | 0.00 | 0.00 | 74 | 1008.4 |
| 20260505053345 | 57 | 183 | 0.0 | 1.0 | 0.00 | 0.00 | 0.00 | 74 | 1008.3 |
| 20260505053239 | 57 | 183 | 0.0 | 1.0 | 0.00 | 0.00 | 0.00 | 74 | 1008.3 |
| 20260505053139 | 57 | 183 | 0.0 | 1.0 | 0.00 | 0.00 | 0.00 | 74 | 1008.3 |
| 20260505053032 | 57 | 183 | 0.0 | 1.0 | 0.00 | 0.00 | 0.00 | 74 | 1008.3 |
| 20260505052933 | 57 | 183 | 0.0 | 3.0 | 0.00 | 0.00 | 0.00 | 74 | 1008.3 |
| 20260505052827 | 57 | 183 | 0.0 | 3.0 | 0.00 | 0.00 | 0.00 | 74 | 1008.4 |
| 20260505052727 | 57 | 183 | 0.0 | 3.0 | 0.00 | 0.00 | 0.00 | 74 | 1008.4 |
| 20260505052620 | 57 | 183 | 0.0 | 3.0 | 0.00 | 0.00 | 0.00 | 74 | 1008.4 |
| 20260505052521 | 57 | 183 | 0.0 | 3.0 | 0.00 | 0.00 | 0.00 | 74 | 1008.4 |
| 20260505052414 | 57 | 183 | 0.0 | 3.0 | 0.00 | 0.00 | 0.00 | 74 | 1008.4 |
| 20260505052316 | 57 | 183 | 0.0 | 3.0 | 0.00 | 0.00 | 0.00 | 74 | 1008.4 |
| 20260505052208 | 57 | 183 | 1.0 | 3.0 | 0.00 | 0.00 | 0.00 | 74 | 1008.4 |
| 20260505052109 | 57 | 183 | 1.0 | 3.0 | 0.00 | 0.00 | 0.00 | 74 | 1008.4 |
| 20260505052002 | 57 | 183 | 1.0 | 3.0 | 0.00 | 0.00 | 0.00 | 74 | 1008.4 |
| 20260505051903 | 57 | 183 | 1.0 | 4.0 | 0.00 | 0.00 | 0.00 | 74 | 1008.4 |
| 20260505051817 | 57 | 183 | 1.0 | 4.0 | 0.00 | 0.00 | 0.00 | 74 | 1008.5 |
| 20260505051810 | 57 | 183 | 1.0 | 4.0 | 0.00 | 0.00 | 0.00 | 74 | 1008.4 |
| 20260505051550 | 57 | 183 | 2.0 | 4.0 | 0.00 | 0.00 | 0.00 | 74 | 1008.5 |
| 20260505051527 | 57 | 183 | 2.0 | 4.0 | 0.00 | 0.00 | 0.00 | 74 | 1008.4 |
| 20260505051523 | 57 | 183 | 2.0 | 4.0 | 0.00 | 0.00 | 0.00 | 74 | 1008.5 |
| 20260505051514 | 57 | 183 | 2.0 | 4.0 | 0.00 | 0.00 | 0.00 | 74 | 1008.4 |
| 20260505051138 | 57 | 184 | 2.0 | 4.0 | 0.00 | 0.00 | 0.00 | 74 | 1008.4 |
| 20260505051038 | 58 | 183 | 2.0 | 4.0 | 0.00 | 0.00 | 0.00 | 74 | 1008.4 |
| 20260505050933 | 58 | 184 | 2.0 | 4.0 | 0.00 | 0.00 | 0.00 | 74 | 1008.4 |
| 20260505050849 | 58 | 183 | 2.0 | 4.0 | 0.00 | 0.00 | 0.00 | 74 | 1008.4 |
| 20260505050843 | 58 | 183 | 2.0 | 4.0 | 0.00 | 0.00 | 0.00 | 74 | 1008.4 |
| 20260505050627 | 58 | 183 | 2.0 | 4.0 | 0.00 | 0.00 | 0.00 | 74 | 1008.4 |
| 20260505050541 | 58 | 183 | 2.0 | 4.0 | 0.00 | 0.00 | 0.00 | 74 | 1008.4 |
| 20260505050534 | 58 | 183 | 2.0 | 4.0 | 0.00 | 0.00 | 0.00 | 74 | 1008.4 |
| 20260505050314 | 58 | 183 | 2.0 | 4.0 | 0.00 | 0.00 | 0.00 | 74 | 1008.3 |
| 20260505050253 | 58 | 183 | 2.0 | 4.0 | 0.00 | 0.00 | 0.00 | 74 | 1008.3 |
| 20260505050249 | 58 | 183 | 2.0 | 4.0 | 0.00 | 0.00 | 0.00 | 74 | 1008.3 |
| 20260505050240 | 58 | 183 | 2.0 | 4.0 | 0.00 | 0.00 | 0.00 | 74 | 1008.4 |
| 20260505041702 | 58 | 182 | 0.0 | 5.0 | 0.00 | 0.00 | 0.00 | 71 | 1008.1 |
| 20260505041603 | 58 | 182 | 0.0 | 5.0 | 0.00 | 0.00 | 0.00 | 71 | 1008.1 |
| 20260505041456 | 58 | 182 | 0.0 | 5.0 | 0.00 | 0.00 | 0.00 | 71 | 1008.1 |
| 20260505041357 | 58 | 182 | 1.0 | 7.0 | 0.00 | 0.00 | 0.00 | 71 | 1008.1 |
| 20260505041250 | 58 | 182 | 1.0 | 7.0 | 0.00 | 0.00 | 0.00 | 71 | 1008.1 |
| 20260505041151 | 58 | 182 | 1.0 | 7.0 | 0.00 | 0.00 | 0.00 | 71 | 1008.0 |
| 20260505041107 | 58 | 182 | 1.0 | 7.0 | 0.00 | 0.00 | 0.00 | 71 | 1008.0 |
| 20260505041100 | 58 | 182 | 1.0 | 7.0 | 0.00 | 0.00 | 0.00 | 71 | 1008.0 |
| 20260505040837 | 58 | 182 | 1.0 | 7.0 | 0.00 | 0.00 | 0.00 | 72 | 1008.0 |
| 20260505040754 | 58 | 182 | 2.0 | 7.0 | 0.00 | 0.00 | 0.00 | 72 | 1008.0 |
| 20260505040748 | 58 | 182 | 2.0 | 7.0 | 0.00 | 0.00 | 0.00 | 71 | 1008.0 |
| 20260505040533 | 58 | 182 | 2.0 | 7.0 | 0.00 | 0.00 | 0.00 | 72 | 1008.0 |
| 20260505040426 | 57 | 179 | 2.0 | 7.0 | 0.00 | 0.00 | 0.00 | 72 | 1008.0 |
| 20260505040326 | 57 | 179 | 2.0 | 7.0 | 0.00 | 0.00 | 0.00 | 72 | 1008.0 |
| 20260505040219 | 57 | 179 | 3.0 | 7.0 | 0.00 | 0.00 | 0.00 | 72 | 1008.0 |
| 20260505040120 | 57 | 179 | 3.0 | 7.0 | 0.00 | 0.00 | 0.00 | 72 | 1007.9 |
| 20260505040013 | 57 | 180 | 3.0 | 7.0 | 0.00 | 0.00 | 0.00 | 72 | 1008.0 |
| 20260505035914 | 57 | 179 | 3.0 | 7.0 | 0.00 | 0.00 | 0.00 | 72 | 1008.0 |
| 20260505035807 | 57 | 180 | 3.0 | 7.0 | 0.00 | 0.00 | 0.00 | 72 | 1008.0 |
| 20260505035708 | 57 | 179 | 3.0 | 7.0 | 0.00 | 0.00 | 0.00 | 72 | 1008.0 |
| 20260505035602 | 57 | 178 | 3.0 | 7.0 | 0.00 | 0.00 | 0.00 | 72 | 1008.0 |
| 20260505035518 | 57 | 173 | 3.0 | 6.0 | 0.00 | 0.00 | 0.00 | 71 | 1008.0 |
| 20260505035512 | 57 | 167 | 3.0 | 7.0 | 0.00 | 0.00 | 0.00 | 71 | 1008.0 |
| 20260505035256 | 57 | 174 | 3.0 | 6.0 | 0.00 | 0.00 | 0.00 | 71 | 1008.0 |
| 20260505035150 | 57 | 167 | 3.0 | 6.0 | 0.00 | 0.00 | 0.00 | 71 | 1008.0 |
| 20260505035050 | 57 | 172 | 3.0 | 6.0 | 0.00 | 0.00 | 0.00 | 71 | 1008.0 |
| 20260505034943 | 57 | 187 | 3.0 | 6.0 | 0.00 | 0.00 | 0.00 | 70 | 1008.0 |
| 20260505034845 | 57 | 188 | 3.0 | 6.0 | 0.00 | 0.00 | 0.00 | 70 | 1007.9 |
| 20260505034737 | 57 | 163 | 3.0 | 6.0 | 0.00 | 0.00 | 0.00 | 69 | 1008.0 |
| 20260505034638 | 57 | 172 | 2.0 | 5.0 | 0.00 | 0.00 | 0.00 | 69 | 1007.9 |
| 20260505034532 | 57 | 173 | 2.0 | 5.0 | 0.00 | 0.00 | 0.00 | 69 | 1007.9 |
| 20260505034432 | 58 | 173 | 2.0 | 5.0 | 0.00 | 0.00 | 0.00 | 69 | 1007.9 |
| 20260505034325 | 58 | 173 | 2.0 | 5.0 | 0.00 | 0.00 | 0.00 | 69 | 1007.9 |
| 20260505034226 | 58 | 176 | 2.0 | 5.0 | 0.00 | 0.00 | 0.00 | 68 | 1007.9 |
| 20260505034119 | 58 | 176 | 2.0 | 4.0 | 0.00 | 0.00 | 0.00 | 68 | 1008.0 |
| 20260505034037 | 58 | 178 | 1.0 | 4.0 | 0.00 | 0.00 | 0.00 | 68 | 1007.9 |
| 20260505034030 | 58 | 177 | 2.0 | 4.0 | 0.00 | 0.00 | 0.00 | 68 | 1007.9 |
| 20260505033814 | 58 | 178 | 1.0 | 4.0 | 0.00 | 0.00 | 0.00 | 67 | 1007.9 |
| 20260505033709 | 58 | 179 | 1.0 | 3.0 | 0.00 | 0.00 | 0.00 | 66 | 1008.0 |
| 20260505033621 | 59 | 180 | 1.0 | 3.0 | 0.00 | 0.00 | 0.00 | 66 | 1008.0 |
| 20260505033615 | 59 | 179 | 1.0 | 3.0 | 0.00 | 0.00 | 0.00 | 66 | 1008.0 |
| 20260505033402 | 59 | 180 | 1.0 | 3.0 | 0.00 | 0.00 | 0.00 | 66 | 1008.0 |
| 20260505033256 | 59 | 180 | 1.0 | 2.0 | 0.00 | 0.00 | 0.00 | 65 | 1008.0 |
| 20260505033156 | 59 | 180 | 0.0 | 2.0 | 0.00 | 0.00 | 0.00 | 65 | 1008.0 |
| 20260505033049 | 60 | 180 | 0.0 | 2.0 | 0.00 | 0.00 | 0.00 | 65 | 1008.0 |
| 20260505032951 | 60 | 180 | 1.0 | 4.0 | 0.00 | 0.00 | 0.00 | 64 | 1008.0 |
| 20260505032843 | 60 | 180 | 1.0 | 4.0 | 0.00 | 0.00 | 0.00 | 65 | 1008.0 |
| 20260505032759 | 60 | 180 | 1.0 | 4.0 | 0.00 | 0.00 | 0.00 | 64 | 1008.1 |
| 20260505032753 | 60 | 180 | 1.0 | 4.0 | 0.00 | 0.00 | 0.00 | 64 | 1008.0 |
| 20260505032538 | 60 | 180 | 1.0 | 4.0 | 0.00 | 0.00 | 0.00 | 64 | 1008.0 |
| 20260505032432 | 60 | 180 | 1.0 | 4.0 | 0.00 | 0.00 | 0.00 | 63 | 1008.0 |
| 20260505032331 | 60 | 180 | 1.0 | 4.0 | 0.00 | 0.00 | 0.00 | 63 | 1008.0 |
| 20260505032225 | 61 | 180 | 1.0 | 4.0 | 0.00 | 0.00 | 0.00 | 62 | 1008.0 |
| 20260505032126 | 61 | 180 | 1.0 | 4.0 | 0.00 | 0.00 | 0.00 | 62 | 1008.0 |
| 20260505032041 | 61 | 180 | 1.0 | 4.0 | 0.00 | 0.00 | 0.00 | 62 | 1008.0 |
| 20260505032034 | 61 | 180 | 1.0 | 4.0 | 0.00 | 0.00 | 0.00 | 62 | 1008.1 |
| 20260505031813 | 61 | 180 | 1.0 | 4.0 | 0.00 | 0.00 | 0.00 | 62 | 1008.1 |
| 20260505031732 | 62 | 180 | 2.0 | 4.0 | 0.00 | 0.00 | 0.00 | 61 | 1008.1 |
| 20260505031724 | 61 | 180 | 2.0 | 4.0 | 0.00 | 0.00 | 0.00 | 62 | 1008.1 |
| 20260505031508 | 62 | 180 | 2.0 | 4.0 | 0.00 | 0.00 | 0.00 | 60 | 1008.1 |
| 20260505031403 | 62 | 180 | 2.0 | 4.0 | 0.00 | 0.00 | 0.00 | 60 | 1008.0 |
| 20260505031302 | 62 | 180 | 2.0 | 4.0 | 0.00 | 0.00 | 0.00 | 60 | 1008.1 |
| 20260505031234 | 62 | 180 | 2.0 | 4.0 | 0.00 | 0.00 | 0.00 | 60 | 1008.0 |
| 20260505031228 | 62 | 180 | 2.0 | 4.0 | 0.00 | 0.00 | 0.00 | 60 | 1008.0 |
| 20260505031220 | 62 | 180 | 2.0 | 4.0 | 0.00 | 0.00 | 0.00 | 59 | 1008.0 |
| 20260505030850 | 62 | 180 | 2.0 | 4.0 | 0.00 | 0.00 | 0.00 | 59 | 1008.0 |
| 20260505030745 | 62 | 179 | 2.0 | 4.0 | 0.00 | 0.00 | 0.00 | 59 | 1008.1 |
| 20260505030644 | 62 | 173 | 2.0 | 4.0 | 0.00 | 0.00 | 0.00 | 59 | 1008.0 |
| 20260505030537 | 62 | 173 | 2.0 | 4.0 | 0.00 | 0.00 | 0.00 | 59 | 1008.1 |
| 20260505030438 | 62 | 173 | 2.0 | 4.0 | 0.00 | 0.00 | 0.00 | 59 | 1008.1 |
| 20260505030332 | 62 | 173 | 2.0 | 4.0 | 0.00 | 0.00 | 0.00 | 59 | 1008.1 |
| 20260505030232 | 62 | 173 | 1.0 | 4.0 | 0.00 | 0.00 | 0.00 | 59 | 1008.1 |
| 20260505030126 | 62 | 170 | 1.0 | 3.0 | 0.00 | 0.00 | 0.00 | 59 | 1008.1 |
| 20260505030026 | 62 | 170 | 1.0 | 6.0 | 0.00 | 0.00 | 0.00 | 59 | 1008.1 |
| 20260505025919 | 62 | 170 | 1.0 | 6.0 | 0.00 | 0.00 | 0.00 | 59 | 1008.1 |
| 20260505025819 | 62 | 170 | 1.0 | 6.0 | 0.00 | 0.00 | 0.00 | 59 | 1008.1 |
| 20260505025713 | 62 | 170 | 1.0 | 6.0 | 0.00 | 0.00 | 0.00 | 59 | 1008.1 |
| 20260505025614 | 62 | 170 | 1.0 | 6.0 | 0.00 | 0.00 | 0.00 | 59 | 1008.0 |
| 20260505025507 | 62 | 170 | 2.0 | 6.0 | 0.00 | 0.00 | 0.00 | 59 | 1008.1 |
| 20260505025408 | 62 | 170 | 2.0 | 6.0 | 0.00 | 0.00 | 0.00 | 59 | 1008.0 |
| 20260505025304 | 62 | 170 | 2.0 | 6.0 | 0.00 | 0.00 | 0.00 | 59 | 1008.0 |
| 20260505025202 | 62 | 170 | 2.0 | 6.0 | 0.00 | 0.00 | 0.00 | 59 | 1008.0 |
| 20260505025055 | 62 | 170 | 2.0 | 6.0 | 0.00 | 0.00 | 0.00 | 59 | 1008.0 |
| 20260505024956 | 62 | 169 | 3.0 | 6.0 | 0.00 | 0.00 | 0.00 | 59 | 1008.0 |
| 20260505024850 | 62 | 169 | 3.0 | 6.0 | 0.00 | 0.00 | 0.00 | 59 | 1008.0 |
| 20260505024750 | 62 | 169 | 2.0 | 6.0 | 0.00 | 0.00 | 0.00 | 59 | 1008.0 |
| 20260505024644 | 62 | 169 | 2.0 | 6.0 | 0.00 | 0.00 | 0.00 | 60 | 1008.0 |
| 20260505024544 | 62 | 169 | 2.0 | 6.0 | 0.00 | 0.00 | 0.00 | 60 | 1008.0 |
| 20260505024501 | 62 | 162 | 2.0 | 6.0 | 0.00 | 0.00 | 0.00 | 60 | 1007.9 |
| 20260505024454 | 62 | 162 | 2.0 | 6.0 | 0.00 | 0.00 | 0.00 | 60 | 1008.0 |
| 20260505024232 | 62 | 161 | 2.0 | 6.0 | 0.00 | 0.00 | 0.00 | 59 | 1007.9 |
| 20260505024132 | 62 | 148 | 2.0 | 6.0 | 0.00 | 0.00 | 0.00 | 60 | 1007.9 |
| 20260505024025 | 62 | 144 | 2.0 | 6.0 | 0.00 | 0.00 | 0.00 | 60 | 1007.8 |
| 20260505023943 | 62 | 144 | 2.0 | 6.0 | 0.00 | 0.00 | 0.00 | 59 | 1007.8 |
| 20260505023936 | 62 | 144 | 2.0 | 6.0 | 0.00 | 0.00 | 0.00 | 61 | 1007.8 |
| 20260505023720 | 62 | 144 | 2.0 | 6.0 | 0.00 | 0.00 | 0.00 | 59 | 1007.7 |
| 20260505023613 | 62 | 144 | 1.0 | 6.0 | 0.00 | 0.00 | 0.00 | 59 | 1007.7 |
| 20260505023514 | 62 | 144 | 1.0 | 6.0 | 0.00 | 0.00 | 0.00 | 58 | 1007.8 |
| 20260505023407 | 62 | 144 | 1.0 | 7.0 | 0.00 | 0.00 | 0.00 | 58 | 1007.8 |
| 20260505023308 | 62 | 144 | 1.0 | 7.0 | 0.00 | 0.00 | 0.00 | 58 | 1007.8 |
| 20260505023203 | 62 | 144 | 1.0 | 7.0 | 0.00 | 0.00 | 0.00 | 58 | 1007.9 |
| 20260505023102 | 62 | 134 | 0.0 | 7.0 | 0.00 | 0.00 | 0.00 | 58 | 1007.8 |
| 20260505022956 | 63 | 134 | 0.0 | 7.0 | 0.00 | 0.00 | 0.00 | 58 | 1007.8 |
| 20260505022911 | 63 | 134 | 1.0 | 7.0 | 0.00 | 0.00 | 0.00 | 58 | 1007.8 |
| 20260505022904 | 63 | 134 | 0.0 | 7.0 | 0.00 | 0.00 | 0.00 | 58 | 1007.8 |
| 20260505022650 | 63 | 134 | 1.0 | 7.0 | 0.00 | 0.00 | 0.00 | 58 | 1007.8 |
| 20260505022608 | 63 | 134 | 1.0 | 7.0 | 0.00 | 0.00 | 0.00 | 57 | 1007.8 |
| 20260505022559 | 63 | 134 | 1.0 | 7.0 | 0.00 | 0.00 | 0.00 | 57 | 1007.9 |
| 20260505022337 | 63 | 134 | 1.0 | 7.0 | 0.00 | 0.00 | 0.00 | 57 | 1007.8 |
| 20260505022238 | 63 | 134 | 2.0 | 7.0 | 0.00 | 0.00 | 0.00 | 57 | 1007.8 |
| 20260505022131 | 63 | 134 | 2.0 | 7.0 | 0.00 | 0.00 | 0.00 | 57 | 1007.8 |
| 20260505022032 | 63 | 134 | 2.0 | 7.0 | 0.00 | 0.00 | 0.00 | 57 | 1007.8 |
| 20260505021925 | 63 | 134 | 2.0 | 7.0 | 0.00 | 0.00 | 0.00 | 57 | 1007.7 |
| 20260505021904 | 63 | 134 | 2.0 | 7.0 | 0.00 | 0.00 | 0.00 | 57 | 1007.7 |
| 20260505021900 | 63 | 134 | 2.0 | 7.0 | 0.00 | 0.00 | 0.00 | 57 | 1007.7 |
| 20260505021850 | 63 | 134 | 2.0 | 7.0 | 0.00 | 0.00 | 0.00 | 57 | 1007.8 |
| 20260505021515 | 63 | 134 | 2.0 | 7.0 | 0.00 | 0.00 | 0.00 | 57 | 1007.7 |
| 20260505021414 | 63 | 162 | 2.0 | 7.0 | 0.00 | 0.00 | 0.00 | 57 | 1007.7 |
| 20260505021307 | 63 | 163 | 2.0 | 7.0 | 0.00 | 0.00 | 0.00 | 57 | 1007.7 |
| 20260505021208 | 63 | 163 | 3.0 | 7.0 | 0.00 | 0.00 | 0.00 | 57 | 1007.7 |
| 20260505021101 | 63 | 163 | 2.0 | 7.0 | 0.00 | 0.00 | 0.00 | 56 | 1007.7 |
| 20260505021003 | 63 | 138 | 2.0 | 7.0 | 0.00 | 0.00 | 0.00 | 56 | 1007.7 |
| 20260505020856 | 63 | 138 | 3.0 | 7.0 | 0.00 | 0.00 | 0.00 | 56 | 1007.7 |
| 20260505020756 | 63 | 144 | 3.0 | 7.0 | 0.00 | 0.00 | 0.00 | 56 | 1007.8 |
| 20260505020650 | 64 | 138 | 3.0 | 7.0 | 0.00 | 0.00 | 0.00 | 56 | 1007.7 |
| 20260505020550 | 64 | 139 | 3.0 | 7.0 | 0.00 | 0.00 | 0.00 | 56 | 1007.7 |
| 20260505020445 | 64 | 139 | 3.0 | 7.0 | 0.00 | 0.00 | 0.00 | 56 | 1007.8 |
| 20260505020344 | 64 | 139 | 3.0 | 7.0 | 0.00 | 0.00 | 0.00 | 56 | 1007.8 |
| 20260505020237 | 64 | 138 | 3.0 | 7.0 | 0.00 | 0.00 | 0.00 | 56 | 1007.8 |
| 20260505020138 | 64 | 120 | 3.0 | 7.0 | 0.00 | 0.00 | 0.00 | 56 | 1007.8 |
| 20260505020033 | 64 | 119 | 3.0 | 7.0 | 0.00 | 0.00 | 0.00 | 56 | 1007.8 |
| 20260505015932 | 64 | 138 | 3.0 | 9.0 | 0.00 | 0.00 | 0.00 | 56 | 1007.8 |
| 20260505015825 | 64 | 138 | 2.0 | 9.0 | 0.00 | 0.00 | 0.00 | 55 | 1007.8 |
| 20260505015727 | 64 | 139 | 2.0 | 9.0 | 0.00 | 0.00 | 0.00 | 55 | 1007.8 |
| 20260505015620 | 64 | 139 | 2.0 | 9.0 | 0.00 | 0.00 | 0.00 | 55 | 1007.8 |
| 20260505015520 | 64 | 139 | 3.0 | 9.0 | 0.00 | 0.00 | 0.00 | 55 | 1007.8 |
| 20260505015414 | 64 | 129 | 3.0 | 9.0 | 0.00 | 0.00 | 0.00 | 55 | 1007.8 |
| 20260505015329 | 64 | 129 | 2.0 | 9.0 | 0.00 | 0.00 | 0.00 | 55 | 1007.9 |
| 20260505015323 | 64 | 129 | 2.0 | 9.0 | 0.00 | 0.00 | 0.00 | 55 | 1007.9 |
| 20260505015108 | 64 | 129 | 2.0 | 9.0 | 0.00 | 0.00 | 0.00 | 55 | 1007.8 |
| 20260505015002 | 64 | 129 | 3.0 | 9.0 | 0.00 | 0.00 | 0.00 | 55 | 1007.8 |
| 20260505014902 | 64 | 128 | 3.0 | 9.0 | 0.00 | 0.00 | 0.00 | 55 | 1007.8 |
| 20260505014818 | 64 | 128 | 3.0 | 9.0 | 0.00 | 0.00 | 0.00 | 55 | 1007.8 |
| 20260505014811 | 64 | 128 | 3.0 | 9.0 | 0.00 | 0.00 | 0.00 | 55 | 1007.8 |
| 20260505014550 | 64 | 128 | 3.0 | 9.0 | 0.00 | 0.00 | 0.00 | 55 | 1007.8 |
| 20260505014450 | 64 | 119 | 3.0 | 9.0 | 0.00 | 0.00 | 0.00 | 55 | 1007.8 |
| 20260505014344 | 65 | 148 | 3.0 | 9.0 | 0.00 | 0.00 | 0.00 | 55 | 1007.8 |
| 20260505014301 | 65 | 148 | 4.0 | 9.0 | 0.00 | 0.00 | 0.00 | 54 | 1007.7 |
| 20260505014254 | 65 | 148 | 4.0 | 9.0 | 0.00 | 0.00 | 0.00 | 54 | 1007.7 |
| 20260505014038 | 65 | 164 | 3.0 | 9.0 | 0.00 | 0.00 | 0.00 | 54 | 1007.7 |
| 20260505013955 | 65 | 140 | 4.0 | 7.0 | 0.00 | 0.00 | 0.00 | 54 | 1007.7 |
| 20260505013946 | 65 | 131 | 4.0 | 7.0 | 0.00 | 0.00 | 0.00 | 54 | 1007.7 |
| 20260505013725 | 65 | 140 | 4.0 | 7.0 | 0.00 | 0.00 | 0.00 | 54 | 1007.7 |
| 20260505013627 | 65 | 139 | 4.0 | 7.0 | 0.00 | 0.00 | 0.00 | 54 | 1007.7 |
| 20260505013520 | 65 | 132 | 4.0 | 7.0 | 0.00 | 0.00 | 0.00 | 53 | 1007.6 |
| 20260505013420 | 65 | 127 | 4.0 | 7.0 | 0.00 | 0.00 | 0.00 | 53 | 1007.7 |
| 20260505013313 | 65 | 142 | 4.0 | 7.0 | 0.00 | 0.00 | 0.00 | 53 | 1007.7 |
| 20260505013214 | 65 | 125 | 4.0 | 8.0 | 0.00 | 0.00 | 0.00 | 53 | 1007.7 |
| 20260505013108 | 65 | 123 | 4.0 | 8.0 | 0.00 | 0.00 | 0.00 | 53 | 1007.7 |
| 20260505013008 | 65 | 129 | 4.0 | 8.0 | 0.00 | 0.00 | 0.00 | 53 | 1007.7 |
| 20260505012902 | 65 | 130 | 3.0 | 8.0 | 0.00 | 0.00 | 0.00 | 53 | 1007.8 |
| 20260505012819 | 65 | 132 | 3.0 | 8.0 | 0.00 | 0.00 | 0.00 | 53 | 1007.8 |
| 20260505012811 | 65 | 139 | 3.0 | 8.0 | 0.00 | 0.00 | 0.00 | 53 | 1007.8 |
| 20260505012556 | 65 | 132 | 3.0 | 8.0 | 0.00 | 0.00 | 0.00 | 53 | 1007.8 |
| 20260505012449 | 65 | 132 | 3.0 | 8.0 | 0.00 | 0.00 | 0.00 | 53 | 1007.8 |
| 20260505012350 | 65 | 132 | 3.0 | 10.0 | 0.00 | 0.00 | 0.00 | 53 | 1007.8 |
| 20260505012245 | 65 | 122 | 3.0 | 10.0 | 0.00 | 0.00 | 0.00 | 53 | 1007.8 |
| 20260505012144 | 66 | 137 | 2.0 | 10.0 | 0.00 | 0.00 | 0.00 | 52 | 1007.8 |
| 20260505012037 | 66 | 130 | 3.0 | 10.0 | 0.00 | 0.00 | 0.00 | 52 | 1007.8 |
| 20260505011938 | 66 | 138 | 3.0 | 10.0 | 0.00 | 0.00 | 0.00 | 52 | 1007.8 |
| 20260505011832 | 66 | 138 | 3.0 | 10.0 | 0.00 | 0.00 | 0.00 | 52 | 1007.8 |
| 20260505011732 | 66 | 138 | 4.0 | 10.0 | 0.00 | 0.00 | 0.00 | 52 | 1007.8 |
| 20260505011627 | 66 | 138 | 4.0 | 10.0 | 0.00 | 0.00 | 0.00 | 52 | 1007.8 |
| 20260505011526 | 66 | 137 | 4.0 | 10.0 | 0.00 | 0.00 | 0.00 | 51 | 1007.8 |
| 20260505011443 | 66 | 139 | 4.0 | 10.0 | 0.00 | 0.00 | 0.00 | 51 | 1007.8 |
| 20260505011436 | 66 | 135 | 4.0 | 10.0 | 0.00 | 0.00 | 0.00 | 51 | 1007.8 |
| 20260505011213 | 66 | 146 | 4.0 | 10.0 | 0.00 | 0.00 | 0.00 | 51 | 1007.7 |
| 20260505011114 | 67 | 132 | 3.0 | 10.0 | 0.00 | 0.00 | 0.00 | 51 | 1007.8 |
| 20260505011008 | 67 | 131 | 3.0 | 10.0 | 0.00 | 0.00 | 0.00 | 50 | 1007.7 |
| 20260505010907 | 67 | 118 | 3.0 | 10.0 | 0.00 | 0.00 | 0.00 | 50 | 1007.7 |
| 20260505010801 | 67 | 134 | 3.0 | 10.0 | 0.00 | 0.00 | 0.00 | 50 | 1007.7 |
| 20260505010702 | 67 | 127 | 3.0 | 10.0 | 0.00 | 0.00 | 0.00 | 50 | 1007.6 |
| 20260505010555 | 67 | 133 | 3.0 | 10.0 | 0.00 | 0.00 | 0.00 | 49 | 1007.7 |
| 20260505010456 | 67 | 129 | 3.0 | 10.0 | 0.00 | 0.00 | 0.00 | 49 | 1007.6 |
| 20260505010350 | 67 | 136 | 3.0 | 8.0 | 0.00 | 0.00 | 0.00 | 49 | 1007.6 |
| 20260505010250 | 67 | 136 | 3.0 | 8.0 | 0.00 | 0.00 | 0.00 | 49 | 1007.6 |
| 20260505010144 | 67 | 135 | 4.0 | 8.0 | 0.00 | 0.00 | 0.00 | 49 | 1007.6 |
| 20260505010044 | 67 | 134 | 4.0 | 8.0 | 0.00 | 0.00 | 0.00 | 49 | 1007.5 |
| 20260505005939 | 67 | 134 | 4.0 | 8.0 | 0.00 | 0.00 | 0.00 | 49 | 1007.5 |
| 20260505005838 | 67 | 159 | 4.0 | 8.0 | 0.00 | 0.00 | 0.00 | 49 | 1007.4 |
| 20260505005731 | 67 | 157 | 4.0 | 8.0 | 0.00 | 0.00 | 0.00 | 49 | 1007.4 |
| 20260505005633 | 67 | 153 | 4.0 | 8.0 | 0.00 | 0.00 | 0.00 | 49 | 1007.4 |
| 20260505005526 | 67 | 154 | 4.0 | 8.0 | 0.00 | 0.00 | 0.00 | 48 | 1007.4 |
| 20260505005426 | 68 | 143 | 4.0 | 8.0 | 0.00 | 0.00 | 0.00 | 48 | 1007.4 |
| 20260505005321 | 68 | 162 | 4.0 | 7.0 | 0.00 | 0.00 | 0.00 | 48 | 1007.4 |
| 20260505005258 | 68 | 150 | 4.0 | 7.0 | 0.00 | 0.00 | 0.00 | 48 | 1007.3 |
| 20260505005254 | 68 | 134 | 4.0 | 6.0 | 0.00 | 0.00 | 0.00 | 48 | 1007.3 |
| 20260505005244 | 68 | 162 | 4.0 | 7.0 | 0.00 | 0.00 | 0.00 | 48 | 1007.4 |
| 20260505004907 | 68 | 142 | 3.0 | 6.0 | 0.00 | 0.00 | 0.00 | 48 | 1007.3 |
| 20260505004808 | 68 | 140 | 3.0 | 6.0 | 0.00 | 0.00 | 0.00 | 48 | 1007.3 |
| 20260505004702 | 68 | 148 | 3.0 | 6.0 | 0.00 | 0.00 | 0.00 | 48 | 1007.3 |
| 20260505004602 | 68 | 148 | 3.0 | 9.0 | 0.00 | 0.00 | 0.00 | 48 | 1007.3 |
| 20260505004456 | 68 | 146 | 3.0 | 9.0 | 0.00 | 0.00 | 0.00 | 48 | 1007.3 |
| 20260505004356 | 68 | 150 | 3.0 | 9.0 | 0.00 | 0.00 | 0.00 | 47 | 1007.3 |
| 20260505004331 | 68 | 150 | 3.0 | 9.0 | 0.00 | 0.00 | 0.00 | 47 | 1007.3 |
| 20260505004325 | 68 | 148 | 4.0 | 9.0 | 0.00 | 0.00 | 0.00 | 47 | 1007.3 |
| 20260505004316 | 68 | 150 | 3.0 | 9.0 | 0.00 | 0.00 | 0.00 | 47 | 1007.3 |
| 20260505003943 | 69 | 148 | 4.0 | 9.0 | 0.00 | 0.00 | 0.00 | 47 | 1007.2 |
| 20260505003838 | 69 | 148 | 4.0 | 9.0 | 0.00 | 0.00 | 0.00 | 47 | 1007.2 |
| 20260505003738 | 69 | 148 | 4.0 | 9.0 | 0.00 | 0.00 | 0.00 | 47 | 1007.2 |
| 20260505003633 | 69 | 149 | 4.0 | 10.0 | 0.00 | 0.00 | 0.00 | 46 | 1007.2 |
| 20260505003532 | 69 | 157 | 4.0 | 10.0 | 0.00 | 0.00 | 0.00 | 46 | 1007.1 |
| 20260505003516 | 69 | 134 | 4.0 | 10.0 | 0.00 | 0.00 | 0.00 | 46 | 1007.1 |
| 20260505003506 | 69 | 159 | 4.0 | 10.0 | 0.00 | 0.00 | 0.00 | 46 | 1007.1 |
| 20260505003346 | 69 | 142 | 4.0 | 10.0 | 0.00 | 0.00 | 0.00 | 46 | 1007.1 |
| 20260505003129 | 69 | 163 | 4.0 | 10.0 | 0.00 | 0.00 | 0.00 | 46 | 1007.1 |
| 20260505003029 | 69 | 156 | 4.0 | 10.0 | 0.00 | 0.00 | 0.00 | 46 | 1007.2 |
| 20260505002929 | 69 | 147 | 5.0 | 10.0 | 0.00 | 0.00 | 0.00 | 46 | 1007.1 |
| 20260505002847 | 69 | 153 | 5.0 | 10.0 | 0.00 | 0.00 | 0.00 | 46 | 1007.2 |
| 20260505002839 | 69 | 155 | 5.0 | 10.0 | 0.00 | 0.00 | 0.00 | 46 | 1007.2 |
| 20260505002624 | 69 | 161 | 5.0 | 10.0 | 0.00 | 0.00 | 0.00 | 46 | 1007.2 |
| 20260505002517 | 69 | 140 | 5.0 | 10.0 | 0.00 | 0.00 | 0.00 | 46 | 1007.2 |
| 20260505002418 | 69 | 125 | 5.0 | 11.0 | 0.00 | 0.00 | 0.00 | 45 | 1007.1 |
| 20260505002312 | 69 | 134 | 5.0 | 11.0 | 0.00 | 0.00 | 0.00 | 45 | 1007.1 |
| 20260505002212 | 69 | 185 | 5.0 | 11.0 | 0.00 | 0.00 | 0.00 | 46 | 1007.2 |
| 20260505002126 | 69 | 157 | 5.0 | 11.0 | 0.00 | 0.00 | 0.00 | 45 | 1007.1 |
| 20260505002119 | 69 | 159 | 5.0 | 11.0 | 0.00 | 0.00 | 0.00 | 46 | 1007.1 |
| 20260505001903 | 69 | 170 | 5.0 | 11.0 | 0.00 | 0.00 | 0.00 | 45 | 1007.1 |
| 20260505001805 | 69 | 172 | 5.0 | 11.0 | 0.00 | 0.00 | 0.00 | 45 | 1007.1 |
| 20260505001720 | 69 | 154 | 5.0 | 11.0 | 0.00 | 0.00 | 0.00 | 45 | 1007.1 |
| 20260505001712 | 69 | 159 | 5.0 | 11.0 | 0.00 | 0.00 | 0.00 | 45 | 1007.1 |
| 20260505001451 | 69 | 164 | 5.0 | 11.0 | 0.00 | 0.00 | 0.00 | 45 | 1007.1 |
| 20260505001352 | 69 | 159 | 5.0 | 11.0 | 0.00 | 0.00 | 0.00 | 45 | 1007.0 |
| 20260505001305 | 69 | 145 | 5.0 | 11.0 | 0.00 | 0.00 | 0.00 | 45 | 1007.1 |
| 20260505001257 | 69 | 156 | 5.0 | 11.0 | 0.00 | 0.00 | 0.00 | 45 | 1007.0 |
| 20260505001037 | 69 | 159 | 5.0 | 11.0 | 0.00 | 0.00 | 0.00 | 45 | 1007.0 |
| 20260505000936 | 69 | 132 | 5.0 | 11.0 | 0.00 | 0.00 | 0.00 | 45 | 1006.9 |
| 20260505000831 | 70 | 155 | 5.0 | 12.0 | 0.00 | 0.00 | 0.00 | 46 | 1007.0 |
| 20260505000730 | 70 | 169 | 5.0 | 12.0 | 0.00 | 0.00 | 0.00 | 45 | 1007.0 |
| 20260505000624 | 70 | 148 | 5.0 | 12.0 | 0.00 | 0.00 | 0.00 | 45 | 1007.0 |
| 20260505000524 | 70 | 165 | 5.0 | 12.0 | 0.00 | 0.00 | 0.00 | 45 | 1007.0 |
| 20260505000420 | 70 | 151 | 5.0 | 12.0 | 0.00 | 0.00 | 0.00 | 45 | 1007.0 |
| 20260505000318 | 70 | 145 | 5.0 | 12.0 | 0.00 | 0.00 | 0.00 | 45 | 1007.0 |
| 20260505000212 | 70 | 144 | 5.0 | 12.0 | 0.00 | 0.00 | 0.00 | 45 | 1007.0 |
| 20260505000129 | 70 | 158 | 5.0 | 12.0 | 0.00 | 0.00 | 0.00 | 45 | 1007.0 |
| 20260505000122 | 70 | 153 | 5.0 | 12.0 | 0.00 | 0.00 | 0.00 | 45 | 1007.0 |
| 20260504235906 | 70 | 148 | 6.0 | 12.0 | 0.00 | 0.00 | 0.00 | 45 | 1007.0 |
| 20260504235800 | 70 | 144 | 6.0 | 12.0 | 0.00 | 0.00 | 0.00 | 45 | 1007.0 |
| 20260504235700 | 70 | 155 | 6.0 | 12.0 | 0.00 | 0.00 | 0.00 | 45 | 1007.0 |
| 20260504235553 | 70 | 150 | 6.0 | 13.0 | 0.00 | 0.00 | 0.00 | 45 | 1006.9 |
| 20260504235511 | 70 | 176 | 7.0 | 13.0 | 0.00 | 0.00 | 0.00 | 45 | 1006.9 |
| 20260504235503 | 70 | 164 | 6.0 | 13.0 | 0.00 | 0.00 | 0.00 | 45 | 1006.9 |
| 20260504235248 | 70 | 171 | 7.0 | 13.0 | 0.00 | 0.00 | 0.00 | 45 | 1006.9 |
| 20260504235142 | 70 | 169 | 7.0 | 13.0 | 0.00 | 0.00 | 0.00 | 44 | 1006.9 |
| 20260504235042 | 70 | 153 | 7.0 | 13.0 | 0.00 | 0.00 | 0.00 | 44 | 1006.9 |
| 20260504234936 | 70 | 155 | 6.0 | 13.0 | 0.00 | 0.00 | 0.00 | 45 | 1006.9 |
| 20260504234837 | 70 | 141 | 6.0 | 13.0 | 0.00 | 0.00 | 0.00 | 45 | 1006.9 |
| 20260504234730 | 70 | 169 | 6.0 | 13.0 | 0.00 | 0.00 | 0.00 | 45 | 1006.9 |
| 20260504234630 | 70 | 123 | 5.0 | 13.0 | 0.00 | 0.00 | 0.00 | 45 | 1006.9 |
| 20260504234547 | 70 | 159 | 5.0 | 12.0 | 0.00 | 0.00 | 0.00 | 45 | 1006.9 |
| 20260504234540 | 70 | 144 | 5.0 | 12.0 | 0.00 | 0.00 | 0.00 | 45 | 1006.9 |
| 20260504234318 | 71 | 189 | 5.0 | 12.0 | 0.00 | 0.00 | 0.00 | 44 | 1006.9 |
| 20260504234217 | 71 | 155 | 5.0 | 12.0 | 0.00 | 0.00 | 0.00 | 45 | 1006.9 |
| 20260504234112 | 71 | 159 | 5.0 | 12.0 | 0.00 | 0.00 | 0.00 | 45 | 1006.9 |
| 20260504234028 | 71 | 171 | 5.0 | 12.0 | 0.00 | 0.00 | 0.00 | 44 | 1006.8 |
| 20260504234022 | 71 | 159 | 5.0 | 12.0 | 0.00 | 0.00 | 0.00 | 45 | 1006.8 |
| 20260504233806 | 71 | 176 | 5.0 | 12.0 | 0.00 | 0.00 | 0.00 | 44 | 1006.8 |
| 20260504233700 | 71 | 181 | 5.0 | 12.0 | 0.00 | 0.00 | 0.00 | 45 | 1006.8 |
| 20260504233600 | 71 | 166 | 5.0 | 12.0 | 0.00 | 0.00 | 0.00 | 45 | 1006.8 |
| 20260504233454 | 71 | 162 | 5.0 | 12.0 | 0.00 | 0.00 | 0.00 | 44 | 1006.8 |
| 20260504233354 | 71 | 205 | 6.0 | 12.0 | 0.00 | 0.00 | 0.00 | 44 | 1006.9 |
| 20260504233248 | 71 | 146 | 6.0 | 12.0 | 0.00 | 0.00 | 0.00 | 44 | 1006.9 |
| 20260504233148 | 71 | 175 | 6.0 | 12.0 | 0.00 | 0.00 | 0.00 | 44 | 1006.8 |
| 20260504233123 | 71 | 176 | 6.0 | 22.0 | 0.00 | 0.00 | 0.00 | 44 | 1006.8 |
| 20260504233118 | 71 | 163 | 6.0 | 22.0 | 0.00 | 0.00 | 0.00 | 44 | 1006.8 |
| 20260504233108 | 71 | 175 | 6.0 | 22.0 | 0.00 | 0.00 | 0.00 | 45 | 1006.8 |
| 20260504232831 | 72 | 157 | 7.0 | 22.0 | 0.00 | 0.00 | 0.00 | 43 | 1006.8 |
| 20260504232826 | 71 | 167 | 6.0 | 22.0 | 0.00 | 0.00 | 0.00 | 44 | 1006.8 |
| 20260504232814 | 71 | 153 | 6.0 | 22.0 | 0.00 | 0.00 | 0.00 | 44 | 1006.8 |
| 20260504232540 | 72 | 119 | 7.0 | 22.0 | 0.00 | 0.00 | 0.00 | 44 | 1006.8 |
| 20260504232324 | 72 | 227 | 7.0 | 22.0 | 0.00 | 0.00 | 0.00 | 43 | 1006.8 |
| 20260504232217 | 72 | 167 | 8.0 | 22.0 | 0.00 | 0.00 | 0.00 | 43 | 1006.8 |
| 20260504232117 | 72 | 145 | 8.0 | 22.0 | 0.00 | 0.00 | 0.00 | 43 | 1006.8 |
| 20260504232012 | 72 | 135 | 8.0 | 22.0 | 0.00 | 0.00 | 0.00 | 43 | 1006.8 |
| 20260504231912 | 72 | 170 | 9.0 | 22.0 | 0.00 | 0.00 | 0.00 | 43 | 1006.9 |
| 20260504231806 | 72 | 167 | 9.0 | 22.0 | 0.00 | 0.00 | 0.00 | 43 | 1006.8 |
| 20260504231705 | 72 | 187 | 9.0 | 22.0 | 0.00 | 0.00 | 0.00 | 43 | 1006.9 |
| 20260504231600 | 72 | 123 | 10.0 | 22.0 | 0.00 | 0.00 | 0.00 | 42 | 1006.8 |
| 20260504231500 | 72 | 142 | 10.0 | 22.0 | 0.00 | 0.00 | 0.00 | 42 | 1006.9 |
| 20260504231354 | 72 | 163 | 10.0 | 22.0 | 0.00 | 0.00 | 0.00 | 42 | 1006.8 |
| 20260504231254 | 72 | 156 | 10.0 | 22.0 | 0.00 | 0.00 | 0.00 | 42 | 1006.8 |
| 20260504231148 | 72 | 178 | 10.0 | 22.0 | 0.00 | 0.00 | 0.00 | 43 | 1006.9 |
| 20260504231048 | 72 | 151 | 9.0 | 20.0 | 0.00 | 0.00 | 0.00 | 43 | 1006.9 |
| 20260504231008 | 72 | 167 | 8.0 | 20.0 | 0.00 | 0.00 | 0.00 | 42 | 1006.9 |
| 20260504231004 | 72 | 174 | 8.0 | 20.0 | 0.00 | 0.00 | 0.00 | 42 | 1006.8 |
| 20260504230959 | 72 | 175 | 7.0 | 20.0 | 0.00 | 0.00 | 0.00 | 42 | 1006.8 |
| 20260504230955 | 72 | 182 | 7.0 | 20.0 | 0.00 | 0.00 | 0.00 | 43 | 1006.9 |
| 20260504230949 | 72 | 120 | 9.0 | 20.0 | 0.00 | 0.00 | 0.00 | 42 | 1006.8 |
| 20260504230933 | 72 | 193 | 9.0 | 20.0 | 0.00 | 0.00 | 0.00 | 42 | 1006.9 |
| 20260504230324 | 72 | 179 | 7.0 | 15.0 | 0.00 | 0.00 | 0.00 | 43 | 1006.8 |
| 20260504230223 | 72 | 168 | 6.0 | 15.0 | 0.00 | 0.00 | 0.00 | 43 | 1006.8 |
| 20260504230118 | 72 | 148 | 6.0 | 15.0 | 0.00 | 0.00 | 0.00 | 42 | 1006.9 |
| 20260504230018 | 72 | 182 | 6.0 | 18.0 | 0.00 | 0.00 | 0.00 | 42 | 1006.9 |
| 20260504225912 | 72 | 201 | 6.0 | 18.0 | 0.00 | 0.00 | 0.00 | 43 | 1006.9 |
| 20260504225812 | 72 | 178 | 6.0 | 18.0 | 0.00 | 0.00 | 0.00 | 43 | 1006.9 |
| 20260504225706 | 72 | 165 | 6.0 | 18.0 | 0.00 | 0.00 | 0.00 | 43 | 1006.9 |
| 20260504225606 | 72 | 202 | 6.0 | 18.0 | 0.00 | 0.00 | 0.00 | 43 | 1006.9 |
| 20260504225502 | 72 | 202 | 6.0 | 18.0 | 0.00 | 0.00 | 0.00 | 43 | 1006.9 |
| 20260504225456 | 73 | 149 | 6.0 | 18.0 | 0.00 | 0.00 | 0.00 | 42 | 1006.9 |
| 20260504225443 | 72 | 185 | 6.0 | 18.0 | 0.00 | 0.00 | 0.00 | 42 | 1006.9 |
| 20260504225323 | 72 | 166 | 6.0 | 18.0 | 0.00 | 0.00 | 0.00 | 43 | 1006.9 |
| 20260504225204 | 73 | 190 | 6.0 | 18.0 | 0.00 | 0.00 | 0.00 | 43 | 1006.8 |
| 20260504224948 | 73 | 163 | 6.0 | 18.0 | 0.00 | 0.00 | 0.00 | 42 | 1006.9 |
| 20260504224842 | 73 | 134 | 6.0 | 18.0 | 0.00 | 0.00 | 0.00 | 43 | 1006.9 |
| 20260504224742 | 73 | 159 | 8.0 | 18.0 | 0.00 | 0.00 | 0.00 | 42 | 1006.8 |
| 20260504224715 | 73 | 133 | 8.0 | 18.0 | 0.00 | 0.00 | 0.00 | 41 | 1006.9 |
| 20260504224705 | 73 | 127 | 8.0 | 18.0 | 0.00 | 0.00 | 0.00 | 42 | 1006.9 |
| 20260504224546 | 73 | 144 | 8.0 | 18.0 | 0.00 | 0.00 | 0.00 | 42 | 1006.9 |
| 20260504224330 | 73 | 182 | 8.0 | 18.0 | 0.00 | 0.00 | 0.00 | 41 | 1006.8 |
| 20260504224224 | 73 | 171 | 9.0 | 18.0 | 0.00 | 0.00 | 0.00 | 41 | 1006.9 |
| 20260504224123 | 73 | 152 | 9.0 | 18.0 | 0.00 | 0.00 | 0.00 | 41 | 1006.9 |
| 20260504224042 | 73 | 187 | 9.0 | 18.0 | 0.00 | 0.00 | 0.00 | 41 | 1006.9 |
| 20260504224034 | 73 | 166 | 9.0 | 18.0 | 0.00 | 0.00 | 0.00 | 41 | 1006.9 |
| 20260504223812 | 73 | 178 | 8.0 | 22.0 | 0.00 | 0.00 | 0.00 | 41 | 1006.9 |
| 20260504223712 | 73 | 163 | 9.0 | 22.0 | 0.00 | 0.00 | 0.00 | 42 | 1006.9 |
| 20260504223629 | 73 | 180 | 9.0 | 22.0 | 0.00 | 0.00 | 0.00 | 41 | 1007.0 |
| 20260504223621 | 73 | 159 | 9.0 | 22.0 | 0.00 | 0.00 | 0.00 | 41 | 1007.0 |
| 20260504223423 | 73 | 160 | 9.0 | 22.0 | 0.00 | 0.00 | 0.00 | 41 | 1006.9 |
| 20260504223415 | 73 | 184 | 9.0 | 22.0 | 0.00 | 0.00 | 0.00 | 41 | 1007.0 |
| 20260504223154 | 74 | 167 | 9.0 | 22.0 | 0.00 | 0.00 | 0.00 | 41 | 1007.0 |
| 20260504223054 | 74 | 164 | 9.0 | 22.0 | 0.00 | 0.00 | 0.00 | 40 | 1007.0 |
| 20260504222948 | 74 | 188 | 9.0 | 22.0 | 0.00 | 0.00 | 0.00 | 40 | 1007.0 |
| 20260504222847 | 74 | 179 | 10.0 | 22.0 | 0.00 | 0.00 | 0.00 | 40 | 1006.9 |
| 20260504222742 | 74 | 163 | 10.0 | 22.0 | 0.00 | 0.00 | 0.00 | 40 | 1006.9 |
| 20260504222642 | 74 | 153 | 9.0 | 22.0 | 0.00 | 0.00 | 0.00 | 41 | 1007.0 |
| 20260504222536 | 74 | 183 | 9.0 | 22.0 | 0.00 | 0.00 | 0.00 | 40 | 1006.9 |
| 20260504222436 | 74 | 136 | 9.0 | 22.0 | 0.00 | 0.00 | 0.00 | 40 | 1006.9 |
| 20260504222330 | 74 | 194 | 9.0 | 22.0 | 0.00 | 0.00 | 0.00 | 40 | 1006.9 |
| 20260504222230 | 74 | 151 | 8.0 | 22.0 | 0.00 | 0.00 | 0.00 | 40 | 1006.9 |
| 20260504222147 | 74 | 203 | 8.0 | 22.0 | 0.00 | 0.00 | 0.00 | 40 | 1006.9 |
| 20260504222139 | 74 | 166 | 8.0 | 22.0 | 0.00 | 0.00 | 0.00 | 39 | 1007.0 |
| 20260504221919 | 74 | 219 | 8.0 | 22.0 | 0.00 | 0.00 | 0.00 | 40 | 1006.9 |
| 20260504221834 | 75 | 168 | 7.0 | 22.0 | 0.00 | 0.00 | 0.00 | 40 | 1006.9 |
| 20260504221827 | 75 | 193 | 7.0 | 22.0 | 0.00 | 0.00 | 0.00 | 40 | 1006.9 |
| 20260504221612 | 75 | 173 | 7.0 | 22.0 | 0.00 | 0.00 | 0.00 | 40 | 1007.0 |
| 20260504221506 | 75 | 167 | 7.0 | 22.0 | 0.00 | 0.00 | 0.00 | 41 | 1007.0 |
| 20260504221423 | 74 | 209 | 8.0 | 22.0 | 0.00 | 0.00 | 0.00 | 40 | 1007.0 |
| 20260504221415 | 74 | 186 | 8.0 | 22.0 | 0.00 | 0.00 | 0.00 | 41 | 1007.0 |
| 20260504221200 | 74 | 161 | 9.0 | 22.0 | 0.00 | 0.00 | 0.00 | 40 | 1007.0 |
| 20260504221054 | 74 | 192 | 9.0 | 22.0 | 0.00 | 0.00 | 0.00 | 40 | 1007.1 |
| 20260504220954 | 74 | 192 | 9.0 | 22.0 | 0.00 | 0.00 | 0.00 | 40 | 1007.1 |
| 20260504220849 | 74 | 157 | 10.0 | 22.0 | 0.00 | 0.00 | 0.00 | 40 | 1007.1 |
| 20260504220748 | 74 | 179 | 10.0 | 22.0 | 0.00 | 0.00 | 0.00 | 40 | 1007.0 |
| 20260504220642 | 74 | 157 | 11.0 | 22.0 | 0.00 | 0.00 | 0.00 | 40 | 1007.1 |
| 20260504220559 | 74 | 211 | 11.0 | 23.0 | 0.00 | 0.00 | 0.00 | 40 | 1007.0 |
| 20260504220551 | 74 | 193 | 11.0 | 23.0 | 0.00 | 0.00 | 0.00 | 40 | 1007.1 |
| 20260504220336 | 75 | 171 | 11.0 | 23.0 | 0.00 | 0.00 | 0.00 | 40 | 1007.0 |
| 20260504220230 | 75 | 148 | 11.0 | 23.0 | 0.00 | 0.00 | 0.00 | 39 | 1007.1 |
| 20260504220130 | 75 | 180 | 10.0 | 23.0 | 0.00 | 0.00 | 0.00 | 39 | 1007.1 |
| 20260504220024 | 75 | 186 | 10.0 | 23.0 | 0.00 | 0.00 | 0.00 | 39 | 1007.0 |
| 20260504215924 | 75 | 167 | 9.0 | 23.0 | 0.00 | 0.00 | 0.00 | 39 | 1007.1 |
| 20260504215818 | 75 | 165 | 9.0 | 23.0 | 0.00 | 0.00 | 0.00 | 40 | 1007.0 |
| 20260504215721 | 75 | 163 | 8.0 | 23.0 | 0.00 | 0.00 | 0.00 | 40 | 1006.9 |
| 20260504215612 | 75 | 180 | 7.0 | 23.0 | 0.00 | 0.00 | 0.00 | 39 | 1007.0 |
| 20260504215512 | 75 | 171 | 7.0 | 18.0 | 0.00 | 0.00 | 0.00 | 39 | 1006.9 |
| 20260504215406 | 75 | 157 | 7.0 | 18.0 | 0.00 | 0.00 | 0.00 | 39 | 1007.0 |
| 20260504215306 | 75 | 170 | 6.0 | 16.0 | 0.00 | 0.00 | 0.00 | 40 | 1007.0 |
| 20260504215223 | 75 | 187 | 7.0 | 22.0 | 0.00 | 0.00 | 0.00 | 40 | 1007.0 |
| 20260504215214 | 75 | 198 | 6.0 | 12.0 | 0.00 | 0.00 | 0.00 | 40 | 1007.0 |
| 20260504214954 | 75 | 161 | 7.0 | 22.0 | 0.00 | 0.00 | 0.00 | 40 | 1007.0 |
| 20260504214853 | 75 | 132 | 7.0 | 22.0 | 0.00 | 0.00 | 0.00 | 40 | 1006.9 |
| 20260504214748 | 75 | 140 | 8.0 | 22.0 | 0.00 | 0.00 | 0.00 | 39 | 1007.0 |
| 20260504214648 | 75 | 167 | 8.0 | 22.0 | 0.00 | 0.00 | 0.00 | 39 | 1007.0 |
| 20260504214542 | 75 | 137 | 8.0 | 22.0 | 0.00 | 0.00 | 0.00 | 40 | 1007.0 |
| 20260504214442 | 75 | 156 | 8.0 | 22.0 | 0.00 | 0.00 | 0.00 | 40 | 1007.0 |
| 20260504214336 | 75 | 173 | 9.0 | 22.0 | 0.00 | 0.00 | 0.00 | 40 | 1007.0 |
| 20260504214235 | 75 | 175 | 9.0 | 22.0 | 0.00 | 0.00 | 0.00 | 39 | 1007.0 |
| 20260504214130 | 75 | 180 | 9.0 | 22.0 | 0.00 | 0.00 | 0.00 | 39 | 1007.0 |
| 20260504214110 | 75 | 153 | 10.0 | 22.0 | 0.00 | 0.00 | 0.00 | 39 | 1007.0 |
| 20260504214105 | 75 | 169 | 10.0 | 22.0 | 0.00 | 0.00 | 0.00 | 39 | 1007.0 |
| 20260504214056 | 75 | 158 | 10.0 | 22.0 | 0.00 | 0.00 | 0.00 | 39 | 1007.0 |
| 20260504213718 | 75 | 190 | 10.0 | 22.0 | 0.00 | 0.00 | 0.00 | 39 | 1007.0 |
| 20260504213618 | 75 | 143 | 10.0 | 22.0 | 0.00 | 0.00 | 0.00 | 39 | 1007.0 |
| 20260504213512 | 75 | 171 | 10.0 | 22.0 | 0.00 | 0.00 | 0.00 | 39 | 1006.9 |
| 20260504213411 | 75 | 186 | 10.0 | 22.0 | 0.00 | 0.00 | 0.00 | 39 | 1007.0 |
| 20260504213306 | 75 | 163 | 9.0 | 22.0 | 0.00 | 0.00 | 0.00 | 39 | 1007.1 |
| 20260504213224 | 75 | 157 | 8.0 | 20.0 | 0.00 | 0.00 | 0.00 | 38 | 1007.0 |
| 20260504213217 | 75 | 151 | 9.0 | 22.0 | 0.00 | 0.00 | 0.00 | 39 | 1007.0 |
| 20260504213000 | 75 | 163 | 8.0 | 20.0 | 0.00 | 0.00 | 0.00 | 38 | 1007.0 |
| 20260504212855 | 75 | 145 | 8.0 | 20.0 | 0.00 | 0.00 | 0.00 | 38 | 1007.0 |
| 20260504212754 | 75 | 144 | 8.0 | 20.0 | 0.00 | 0.00 | 0.00 | 38 | 1007.0 |
| 20260504212728 | 75 | 134 | 7.0 | 20.0 | 0.00 | 0.00 | 0.00 | 39 | 1007.0 |
| 20260504212723 | 75 | 153 | 7.0 | 20.0 | 0.00 | 0.00 | 0.00 | 40 | 1007.0 |
| 20260504212713 | 75 | 167 | 7.0 | 20.0 | 0.00 | 0.00 | 0.00 | 40 | 1007.0 |
| 20260504212343 | 75 | 168 | 8.0 | 20.0 | 0.00 | 0.00 | 0.00 | 39 | 1007.0 |
| 20260504212236 | 75 | 172 | 8.0 | 20.0 | 0.00 | 0.00 | 0.00 | 39 | 1007.0 |
| 20260504212136 | 75 | 138 | 8.0 | 20.0 | 0.00 | 0.00 | 0.00 | 39 | 1007.0 |
| 20260504212029 | 75 | 130 | 8.0 | 20.0 | 0.00 | 0.00 | 0.00 | 40 | 1007.0 |
| 20260504211929 | 75 | 174 | 8.0 | 20.0 | 0.00 | 0.00 | 0.00 | 40 | 1007.0 |
| 20260504211830 | 75 | 206 | 8.0 | 20.0 | 0.00 | 0.00 | 0.00 | 40 | 1007.0 |
| 20260504211730 | 75 | 158 | 8.0 | 20.0 | 0.00 | 0.00 | 0.00 | 39 | 1007.0 |
| 20260504211630 | 75 | 184 | 8.0 | 20.0 | 0.00 | 0.00 | 0.00 | 40 | 1006.9 |
| 20260504211521 | 75 | 173 | 8.0 | 20.0 | 0.00 | 0.00 | 0.00 | 39 | 1007.0 |
| 20260504211420 | 75 | 175 | 7.0 | 20.0 | 0.00 | 0.00 | 0.00 | 40 | 1007.0 |
| 20260504211314 | 75 | 157 | 7.0 | 20.0 | 0.00 | 0.00 | 0.00 | 40 | 1007.0 |
| 20260504211214 | 75 | 159 | 8.0 | 20.0 | 0.00 | 0.00 | 0.00 | 40 | 1007.1 |
| 20260504211109 | 75 | 156 | 8.0 | 20.0 | 0.00 | 0.00 | 0.00 | 39 | 1007.0 |
| 20260504211008 | 75 | 182 | 8.0 | 20.0 | 0.00 | 0.00 | 0.00 | 40 | 1007.1 |
| 20260504210908 | 75 | 145 | 8.0 | 20.0 | 0.00 | 0.00 | 0.00 | 39 | 1007.0 |
| 20260504210808 | 74 | 157 | 9.0 | 20.0 | 0.00 | 0.00 | 0.00 | 40 | 1007.0 |
| 20260504210706 | 74 | 138 | 9.0 | 20.0 | 0.00 | 0.00 | 0.00 | 40 | 1007.0 |
| 20260504210606 | 74 | 158 | 10.0 | 20.0 | 0.00 | 0.00 | 0.00 | 40 | 1007.0 |
| 20260504210506 | 74 | 130 | 10.0 | 20.0 | 0.00 | 0.00 | 0.00 | 40 | 1007.0 |
| 20260504210439 | 74 | 180 | 9.0 | 20.0 | 0.00 | 0.00 | 0.00 | 40 | 1006.9 |
| 20260504210429 | 74 | 185 | 10.0 | 20.0 | 0.00 | 0.00 | 0.00 | 40 | 1006.9 |
| 20260504210309 | 74 | 128 | 10.0 | 20.0 | 0.00 | 0.00 | 0.00 | 40 | 1006.9 |
| 20260504210054 | 74 | 171 | 8.0 | 20.0 | 0.00 | 0.00 | 0.00 | 40 | 1006.9 |
| 20260504205948 | 74 | 142 | 8.0 | 20.0 | 0.00 | 0.00 | 0.00 | 41 | 1007.0 |
| 20260504205849 | 74 | 150 | 7.0 | 20.0 | 0.00 | 0.00 | 0.00 | 39 | 1007.0 |
| 20260504205743 | 74 | 157 | 7.0 | 20.0 | 0.00 | 0.00 | 0.00 | 40 | 1006.9 |
| 20260504205643 | 74 | 135 | 7.0 | 18.0 | 0.00 | 0.00 | 0.00 | 41 | 1006.9 |
| 20260504205532 | 74 | 171 | 6.0 | 14.0 | 0.00 | 0.00 | 0.00 | 40 | 1007.0 |
| 20260504205431 | 74 | 164 | 7.0 | 17.0 | 0.00 | 0.00 | 0.00 | 40 | 1007.0 |
| 20260504205416 | 74 | 173 | 7.0 | 17.0 | 0.00 | 0.00 | 0.00 | 39 | 1007.1 |
| 20260504205411 | 74 | 176 | 7.0 | 17.0 | 0.00 | 0.00 | 0.00 | 38 | 1007.0 |
| 20260504205401 | 74 | 186 | 7.0 | 17.0 | 0.00 | 0.00 | 0.00 | 40 | 1007.0 |
| 20260504205026 | 74 | 182 | 7.0 | 17.0 | 0.00 | 0.00 | 0.00 | 39 | 1007.0 |
| 20260504204926 | 74 | 157 | 8.0 | 17.0 | 0.00 | 0.00 | 0.00 | 39 | 1007.0 |
| 20260504204820 | 75 | 159 | 7.0 | 17.0 | 0.00 | 0.00 | 0.00 | 38 | 1007.1 |
| 20260504204737 | 75 | 167 | 7.0 | 17.0 | 0.00 | 0.00 | 0.00 | 38 | 1007.1 |
| 20260504204730 | 75 | 149 | 7.0 | 17.0 | 0.00 | 0.00 | 0.00 | 38 | 1007.1 |
| 20260504204514 | 75 | 154 | 7.0 | 17.0 | 0.00 | 0.00 | 0.00 | 38 | 1007.1 |
| 20260504204409 | 75 | 155 | 7.0 | 17.0 | 0.00 | 0.00 | 0.00 | 38 | 1007.2 |
| 20260504204326 | 75 | 176 | 8.0 | 17.0 | 0.00 | 0.00 | 0.00 | 40 | 1007.1 |
| 20260504204318 | 75 | 165 | 7.0 | 17.0 | 0.00 | 0.00 | 0.00 | 39 | 1007.2 |
| 20260504204102 | 75 | 144 | 8.0 | 17.0 | 0.00 | 0.00 | 0.00 | 39 | 1007.1 |
| 20260504203956 | 75 | 166 | 8.0 | 17.0 | 0.00 | 0.00 | 0.00 | 38 | 1007.2 |
| 20260504203855 | 75 | 188 | 8.0 | 17.0 | 0.00 | 0.00 | 0.00 | 40 | 1007.2 |
| 20260504203750 | 75 | 140 | 8.0 | 17.0 | 0.00 | 0.00 | 0.00 | 39 | 1007.2 |
| 20260504203650 | 75 | 178 | 9.0 | 17.0 | 0.00 | 0.00 | 0.00 | 38 | 1007.2 |
| 20260504203543 | 75 | 192 | 9.0 | 17.0 | 0.00 | 0.00 | 0.00 | 38 | 1007.2 |
| 20260504203444 | 75 | 204 | 9.0 | 16.0 | 0.00 | 0.00 | 0.00 | 40 | 1007.2 |
| 20260504203338 | 75 | 144 | 9.0 | 16.0 | 0.00 | 0.00 | 0.00 | 40 | 1007.2 |
| 20260504203238 | 75 | 176 | 9.0 | 16.0 | 0.00 | 0.00 | 0.00 | 40 | 1007.1 |
| 20260504203133 | 75 | 146 | 9.0 | 16.0 | 0.00 | 0.00 | 0.00 | 39 | 1007.2 |
| 20260504203031 | 75 | 229 | 10.0 | 17.0 | 0.00 | 0.00 | 0.00 | 39 | 1007.2 |
| 20260504202925 | 75 | 216 | 10.0 | 17.0 | 0.00 | 0.00 | 0.00 | 39 | 1007.2 |
| 20260504202826 | 75 | 184 | 10.0 | 17.0 | 0.00 | 0.00 | 0.00 | 38 | 1007.2 |
| 20260504202719 | 75 | 194 | 9.0 | 17.0 | 0.00 | 0.00 | 0.00 | 37 | 1007.2 |
| 20260504202701 | 75 | 140 | 9.0 | 17.0 | 0.00 | 0.00 | 0.00 | 39 | 1007.3 |
| 20260504202650 | 75 | 198 | 9.0 | 17.0 | 0.00 | 0.00 | 0.00 | 39 | 1007.2 |
| 20260504202529 | 75 | 161 | 9.0 | 17.0 | 0.00 | 0.00 | 0.00 | 39 | 1007.3 |
| 20260504202347 | 75 | 134 | 9.0 | 17.0 | 0.00 | 0.00 | 0.00 | 41 | 1007.2 |
| 20260504202342 | 75 | 142 | 8.0 | 17.0 | 0.00 | 0.00 | 0.00 | 38 | 1007.2 |
| 20260504202332 | 75 | 194 | 9.0 | 17.0 | 0.00 | 0.00 | 0.00 | 42 | 1007.3 |
| 20260504202002 | 75 | 132 | 8.0 | 16.0 | 0.00 | 0.00 | 0.00 | 38 | 1007.3 |
| 20260504201855 | 75 | 129 | 8.0 | 16.0 | 0.00 | 0.00 | 0.00 | 40 | 1007.3 |
| 20260504201755 | 75 | 120 | 8.0 | 16.0 | 0.00 | 0.00 | 0.00 | 41 | 1007.4 |
| 20260504201649 | 75 | 139 | 8.0 | 16.0 | 0.00 | 0.00 | 0.00 | 40 | 1007.4 |
| 20260504201550 | 75 | 136 | 8.0 | 16.0 | 0.00 | 0.00 | 0.00 | 39 | 1007.4 |
| 20260504201444 | 75 | 128 | 8.0 | 14.0 | 0.00 | 0.00 | 0.00 | 40 | 1007.4 |
| 20260504201344 | 75 | 178 | 8.0 | 21.0 | 0.00 | 0.00 | 0.00 | 39 | 1007.5 |
| 20260504201237 | 75 | 159 | 8.0 | 21.0 | 0.00 | 0.00 | 0.00 | 40 | 1007.5 |
| 20260504201137 | 75 | 173 | 8.0 | 21.0 | 0.00 | 0.00 | 0.00 | 40 | 1007.5 |
| 20260504201031 | 75 | 155 | 8.0 | 21.0 | 0.00 | 0.00 | 0.00 | 40 | 1007.6 |
| 20260504200932 | 75 | 187 | 8.0 | 21.0 | 0.00 | 0.00 | 0.00 | 40 | 1007.5 |
| 20260504200825 | 75 | 148 | 7.0 | 21.0 | 0.00 | 0.00 | 0.00 | 39 | 1007.5 |
| 20260504200726 | 75 | 131 | 7.0 | 21.0 | 0.00 | 0.00 | 0.00 | 41 | 1007.5 |
| 20260504200620 | 75 | 120 | 7.0 | 21.0 | 0.00 | 0.00 | 0.00 | 41 | 1007.6 |
| 20260504200520 | 74 | 173 | 7.0 | 21.0 | 0.00 | 0.00 | 0.00 | 39 | 1007.6 |
| 20260504200413 | 74 | 189 | 8.0 | 21.0 | 0.00 | 0.00 | 0.00 | 39 | 1007.6 |
| 20260504200329 | 74 | 195 | 8.0 | 21.0 | 0.00 | 0.00 | 0.00 | 41 | 1007.6 |
| 20260504200323 | 74 | 198 | 8.0 | 21.0 | 0.00 | 0.00 | 0.00 | 41 | 1007.7 |
| 20260504200109 | 74 | 221 | 8.0 | 21.0 | 0.00 | 0.00 | 0.00 | 40 | 1007.7 |
| 20260504200001 | 74 | 207 | 8.0 | 21.0 | 0.00 | 0.00 | 0.00 | 41 | 1007.7 |
| 20260504195902 | 74 | 179 | 8.0 | 21.0 | 0.00 | 0.00 | 0.00 | 41 | 1007.7 |
| 20260504195755 | 74 | 195 | 8.0 | 21.0 | 0.00 | 0.00 | 0.00 | 40 | 1007.7 |
| 20260504195656 | 74 | 182 | 8.0 | 21.0 | 0.00 | 0.00 | 0.00 | 40 | 1007.7 |
| 20260504195549 | 74 | 191 | 8.0 | 21.0 | 0.00 | 0.00 | 0.00 | 39 | 1007.7 |
| 20260504195507 | 74 | 154 | 7.0 | 20.0 | 0.00 | 0.00 | 0.00 | 41 | 1007.7 |
| 20260504195500 | 74 | 133 | 8.0 | 21.0 | 0.00 | 0.00 | 0.00 | 39 | 1007.7 |
| 20260504195243 | 74 | 148 | 7.0 | 20.0 | 0.00 | 0.00 | 0.00 | 40 | 1007.7 |
| 20260504195137 | 74 | 198 | 7.0 | 20.0 | 0.00 | 0.00 | 0.00 | 39 | 1007.8 |
| 20260504195037 | 74 | 153 | 7.0 | 20.0 | 0.00 | 0.00 | 0.00 | 39 | 1007.8 |
| 20260504194931 | 74 | 188 | 7.0 | 20.0 | 0.00 | 0.00 | 0.00 | 41 | 1007.8 |
| 20260504194833 | 74 | 155 | 7.0 | 20.0 | 0.00 | 0.00 | 0.00 | 41 | 1007.9 |
| 20260504194749 | 74 | 186 | 8.0 | 20.0 | 0.00 | 0.00 | 0.00 | 41 | 1007.9 |
| 20260504194740 | 74 | 181 | 7.0 | 20.0 | 0.00 | 0.00 | 0.00 | 40 | 1007.8 |
| 20260504194519 | 74 | 179 | 8.0 | 20.0 | 0.00 | 0.00 | 0.00 | 40 | 1007.8 |
| 20260504194420 | 74 | 133 | 8.0 | 20.0 | 0.00 | 0.00 | 0.00 | 40 | 1007.9 |
| 20260504194313 | 74 | 167 | 8.0 | 22.0 | 0.00 | 0.00 | 0.00 | 39 | 1007.9 |
| 20260504194214 | 74 | 189 | 8.0 | 22.0 | 0.00 | 0.00 | 0.00 | 40 | 1008.0 |
| 20260504194107 | 74 | 158 | 8.0 | 22.0 | 0.00 | 0.00 | 0.00 | 40 | 1007.9 |
| 20260504194029 | 73 | 204 | 8.0 | 22.0 | 0.00 | 0.00 | 0.00 | 40 | 1008.0 |
| 20260504194022 | 73 | 157 | 8.0 | 22.0 | 0.00 | 0.00 | 0.00 | 41 | 1008.0 |
| 20260504193804 | 73 | 187 | 9.0 | 22.0 | 0.00 | 0.00 | 0.00 | 40 | 1008.0 |
| 20260504193706 | 73 | 181 | 9.0 | 22.0 | 0.00 | 0.00 | 0.00 | 40 | 1008.1 |
| 20260504193605 | 73 | 182 | 8.0 | 22.0 | 0.00 | 0.00 | 0.00 | 39 | 1008.1 |
| 20260504193505 | 73 | 169 | 8.0 | 22.0 | 0.00 | 0.00 | 0.00 | 41 | 1008.0 |
| 20260504193405 | 73 | 171 | 8.0 | 22.0 | 0.00 | 0.00 | 0.00 | 42 | 1008.1 |
| 20260504193305 | 73 | 203 | 8.0 | 19.0 | 0.00 | 0.00 | 0.00 | 40 | 1008.1 |
| 20260504193206 | 73 | 171 | 8.0 | 19.0 | 0.00 | 0.00 | 0.00 | 42 | 1008.2 |
| 20260504193104 | 73 | 243 | 8.0 | 19.0 | 0.00 | 0.00 | 0.00 | 41 | 1008.1 |
| 20260504193000 | 73 | 239 | 8.0 | 19.0 | 0.00 | 0.00 | 0.00 | 40 | 1008.1 |
| 20260504192923 | 73 | 228 | 7.0 | 19.0 | 0.00 | 0.00 | 0.00 | 41 | 1008.2 |
| 20260504192915 | 73 | 190 | 7.0 | 19.0 | 0.00 | 0.00 | 0.00 | 39 | 1008.2 |
| 20260504192700 | 73 | 186 | 7.0 | 16.0 | 0.00 | 0.00 | 0.00 | 40 | 1008.2 |
| 20260504192621 | 73 | 202 | 7.0 | 16.0 | 0.00 | 0.00 | 0.00 | 40 | 1008.2 |
| 20260504192613 | 73 | 161 | 7.0 | 16.0 | 0.00 | 0.00 | 0.00 | 40 | 1008.3 |
| 20260504192421 | 73 | 180 | 7.0 | 16.0 | 0.00 | 0.00 | 0.00 | 41 | 1008.3 |
| 20260504192413 | 73 | 219 | 7.0 | 16.0 | 0.00 | 0.00 | 0.00 | 40 | 1008.3 |
| 20260504192158 | 73 | 222 | 7.0 | 14.0 | 0.00 | 0.00 | 0.00 | 41 | 1008.3 |
| 20260504192057 | 73 | 177 | 7.0 | 15.0 | 0.00 | 0.00 | 0.00 | 39 | 1008.4 |
| 20260504191957 | 73 | 208 | 8.0 | 15.0 | 0.00 | 0.00 | 0.00 | 40 | 1008.3 |
| 20260504191858 | 74 | 230 | 8.0 | 16.0 | 0.00 | 0.00 | 0.00 | 39 | 1008.2 |
| 20260504191751 | 74 | 187 | 8.0 | 16.0 | 0.00 | 0.00 | 0.00 | 39 | 1008.3 |
| 20260504191651 | 74 | 167 | 8.0 | 16.0 | 0.00 | 0.00 | 0.00 | 39 | 1008.3 |
| 20260504191552 | 73 | 136 | 8.0 | 16.0 | 0.00 | 0.00 | 0.00 | 41 | 1008.3 |
| 20260504191452 | 73 | 186 | 8.0 | 16.0 | 0.00 | 0.00 | 0.00 | 40 | 1008.3 |
| 20260504191352 | 73 | 153 | 8.0 | 16.0 | 0.00 | 0.00 | 0.00 | 42 | 1008.3 |
| 20260504191251 | 73 | 205 | 8.0 | 16.0 | 0.00 | 0.00 | 0.00 | 41 | 1008.4 |
| 20260504191152 | 73 | 142 | 8.0 | 16.0 | 0.00 | 0.00 | 0.00 | 43 | 1008.4 |
| 20260504191049 | 73 | 148 | 8.0 | 16.0 | 0.00 | 0.00 | 0.00 | 43 | 1008.5 |
| 20260504190950 | 72 | 169 | 8.0 | 16.0 | 0.00 | 0.00 | 0.00 | 42 | 1008.4 |
| 20260504190849 | 72 | 219 | 8.0 | 16.0 | 0.00 | 0.00 | 0.00 | 42 | 1008.5 |
| 20260504190749 | 72 | 172 | 8.0 | 16.0 | 0.00 | 0.00 | 0.00 | 42 | 1008.5 |
| 20260504190649 | 72 | 184 | 8.0 | 16.0 | 0.00 | 0.00 | 0.00 | 41 | 1008.5 |
| 20260504190549 | 72 | 178 | 8.0 | 16.0 | 0.00 | 0.00 | 0.00 | 41 | 1008.5 |
| 20260504190447 | 72 | 159 | 9.0 | 16.0 | 0.00 | 0.00 | 0.00 | 42 | 1008.5 |
| 20260504190347 | 72 | 161 | 8.0 | 16.0 | 0.00 | 0.00 | 0.00 | 41 | 1008.6 |
| 20260504190248 | 72 | 145 | 9.0 | 16.0 | 0.00 | 0.00 | 0.00 | 42 | 1008.6 |
| 20260504190147 | 72 | 196 | 9.0 | 16.0 | 0.00 | 0.00 | 0.00 | 42 | 1008.6 |
| 20260504190047 | 72 | 161 | 9.0 | 16.0 | 0.00 | 0.00 | 0.00 | 41 | 1008.6 |
| 20260504185947 | 72 | 175 | 9.0 | 17.0 | 0.00 | 0.00 | 0.00 | 42 | 1008.5 |
| 20260504185847 | 72 | 137 | 9.0 | 17.0 | 0.00 | 0.00 | 0.00 | 41 | 1008.6 |
| 20260504185748 | 72 | 144 | 9.0 | 17.0 | 0.00 | 0.00 | 0.00 | 41 | 1008.6 |
| 20260504185647 | 72 | 173 | 8.0 | 17.0 | 0.00 | 0.00 | 0.00 | 40 | 1008.6 |
| 20260504185545 | 72 | 145 | 8.0 | 20.0 | 0.00 | 0.00 | 0.00 | 41 | 1008.7 |
| 20260504185511 | 72 | 141 | 8.0 | 20.0 | 0.00 | 0.00 | 0.00 | 40 | 1008.7 |
| 20260504185502 | 72 | 145 | 8.0 | 20.0 | 0.00 | 0.00 | 0.00 | 41 | 1008.7 |
| 20260504185245 | 72 | 175 | 8.0 | 20.0 | 0.00 | 0.00 | 0.00 | 42 | 1008.8 |
| 20260504185146 | 72 | 201 | 8.0 | 20.0 | 0.00 | 0.00 | 0.00 | 41 | 1008.8 |
| 20260504185046 | 72 | 195 | 8.0 | 20.0 | 0.00 | 0.00 | 0.00 | 41 | 1008.9 |
| 20260504184946 | 72 | 234 | 8.0 | 20.0 | 0.00 | 0.00 | 0.00 | 42 | 1008.8 |
| 20260504184840 | 72 | 174 | 8.0 | 20.0 | 0.00 | 0.00 | 0.00 | 43 | 1008.8 |
| 20260504184739 | 72 | 202 | 8.0 | 20.0 | 0.00 | 0.00 | 0.00 | 42 | 1008.8 |
| 20260504184640 | 72 | 161 | 9.0 | 20.0 | 0.00 | 0.00 | 0.00 | 41 | 1008.8 |
| 20260504184604 | 72 | 183 | 9.0 | 20.0 | 0.00 | 0.00 | 0.00 | 41 | 1008.9 |
| 20260504184555 | 72 | 193 | 9.0 | 20.0 | 0.00 | 0.00 | 0.00 | 42 | 1008.9 |
| 20260504184339 | 72 | 172 | 9.0 | 20.0 | 0.00 | 0.00 | 0.00 | 41 | 1008.9 |
| 20260504184240 | 72 | 182 | 9.0 | 20.0 | 0.00 | 0.00 | 0.00 | 40 | 1009.0 |
| 20260504184200 | 72 | 194 | 10.0 | 20.0 | 0.00 | 0.00 | 0.00 | 42 | 1008.9 |
| 20260504184153 | 72 | 194 | 9.0 | 20.0 | 0.00 | 0.00 | 0.00 | 42 | 1008.9 |
| 20260504183937 | 72 | 167 | 10.0 | 20.0 | 0.00 | 0.00 | 0.00 | 40 | 1008.9 |
| 20260504183837 | 72 | 132 | 10.0 | 20.0 | 0.00 | 0.00 | 0.00 | 41 | 1009.0 |
| 20260504183737 | 72 | 166 | 10.0 | 20.0 | 0.00 | 0.00 | 0.00 | 40 | 1008.9 |
| 20260504183638 | 72 | 166 | 9.0 | 20.0 | 0.00 | 0.00 | 0.00 | 40 | 1009.0 |
| 20260504183535 | 72 | 161 | 9.0 | 18.0 | 0.00 | 0.00 | 0.00 | 40 | 1009.0 |
| 20260504183435 | 72 | 157 | 8.0 | 18.0 | 0.00 | 0.00 | 0.00 | 41 | 1009.0 |
| 20260504183355 | 73 | 158 | 7.0 | 18.0 | 0.00 | 0.00 | 0.00 | 39 | 1009.0 |
| 20260504183347 | 73 | 124 | 8.0 | 18.0 | 0.00 | 0.00 | 0.00 | 39 | 1009.0 |
| 20260504183331 | 73 | 155 | 8.0 | 18.0 | 0.00 | 0.00 | 0.00 | 39 | 1009.0 |
| 20260504183218 | 73 | 157 | 7.0 | 18.0 | 0.00 | 0.00 | 0.00 | 41 | 1009.0 |
| 20260504183207 | 73 | 175 | 8.0 | 18.0 | 0.00 | 0.00 | 0.00 | 40 | 1009.0 |
| 20260504182837 | 73 | 194 | 7.0 | 16.0 | 0.00 | 0.00 | 0.00 | 40 | 1009.0 |
| 20260504182729 | 73 | 162 | 7.0 | 16.0 | 0.00 | 0.00 | 0.00 | 41 | 1009.0 |
| 20260504182630 | 73 | 197 | 7.0 | 14.0 | 0.00 | 0.00 | 0.00 | 40 | 1009.1 |
| 20260504182523 | 73 | 171 | 7.0 | 16.0 | 0.00 | 0.00 | 0.00 | 42 | 1009.0 |
| 20260504182421 | 73 | 175 | 7.0 | 16.0 | 0.00 | 0.00 | 0.00 | 40 | 1009.1 |
| 20260504182322 | 73 | 214 | 7.0 | 16.0 | 0.00 | 0.00 | 0.00 | 40 | 1009.1 |
| 20260504182222 | 73 | 159 | 7.0 | 16.0 | 0.00 | 0.00 | 0.00 | 41 | 1009.1 |
| 20260504182121 | 73 | 155 | 7.0 | 16.0 | 0.00 | 0.00 | 0.00 | 41 | 1009.1 |
| 20260504182023 | 73 | 142 | 6.0 | 16.0 | 0.00 | 0.00 | 0.00 | 39 | 1009.2 |
| 20260504181921 | 73 | 171 | 6.0 | 16.0 | 0.00 | 0.00 | 0.00 | 39 | 1009.2 |
| 20260504181822 | 73 | 151 | 6.0 | 16.0 | 0.00 | 0.00 | 0.00 | 41 | 1009.2 |
| 20260504181720 | 73 | 155 | 6.0 | 16.0 | 0.00 | 0.00 | 0.00 | 42 | 1009.2 |
| 20260504181641 | 72 | 161 | 6.0 | 15.0 | 0.00 | 0.00 | 0.00 | 42 | 1009.2 |
| 20260504181634 | 72 | 169 | 6.0 | 15.0 | 0.00 | 0.00 | 0.00 | 41 | 1009.3 |
| 20260504181418 | 72 | 240 | 6.0 | 14.0 | 0.00 | 0.00 | 0.00 | 39 | 1009.2 |
| 20260504181342 | 72 | 198 | 6.0 | 14.0 | 0.00 | 0.00 | 0.00 | 40 | 1009.2 |
| 20260504181333 | 72 | 240 | 6.0 | 14.0 | 0.00 | 0.00 | 0.00 | 40 | 1009.2 |
| 20260504181118 | 72 | 215 | 5.0 | 14.0 | 0.00 | 0.00 | 0.00 | 41 | 1009.3 |
| 20260504181020 | 72 | 205 | 6.0 | 14.0 | 0.00 | 0.00 | 0.00 | 43 | 1009.3 |
| 20260504180920 | 72 | 221 | 6.0 | 14.0 | 0.00 | 0.00 | 0.00 | 44 | 1009.3 |
| 20260504180821 | 72 | 236 | 6.0 | 14.0 | 0.00 | 0.00 | 0.00 | 42 | 1009.3 |
| 20260504180720 | 72 | 232 | 6.0 | 14.0 | 0.00 | 0.00 | 0.00 | 40 | 1009.4 |
| 20260504180616 | 72 | 238 | 6.0 | 14.0 | 0.00 | 0.00 | 0.00 | 41 | 1009.3 |
| 20260504180515 | 72 | 177 | 6.0 | 13.0 | 0.00 | 0.00 | 0.00 | 42 | 1009.3 |
| 20260504180416 | 72 | 199 | 6.0 | 13.0 | 0.00 | 0.00 | 0.00 | 41 | 1009.4 |
| 20260504180403 | 72 | 236 | 6.0 | 15.0 | 0.00 | 0.00 | 0.00 | 40 | 1009.4 |
| 20260504180352 | 72 | 213 | 6.0 | 15.0 | 0.00 | 0.00 | 0.00 | 41 | 1009.4 |
| 20260504180232 | 72 | 194 | 6.0 | 15.0 | 0.00 | 0.00 | 0.00 | 40 | 1009.4 |
| 20260504180015 | 72 | 209 | 6.0 | 15.0 | 0.00 | 0.00 | 0.00 | 39 | 1009.5 |
| 20260504175914 | 72 | 185 | 7.0 | 15.0 | 0.00 | 0.00 | 0.00 | 39 | 1009.5 |
| 20260504175816 | 72 | 184 | 6.0 | 15.0 | 0.00 | 0.00 | 0.00 | 40 | 1009.5 |
| 20260504175715 | 72 | 192 | 7.0 | 15.0 | 0.00 | 0.00 | 0.00 | 39 | 1009.5 |
| 20260504175616 | 72 | 196 | 7.0 | 15.0 | 0.00 | 0.00 | 0.00 | 39 | 1009.5 |
| 20260504175510 | 72 | 155 | 7.0 | 15.0 | 0.00 | 0.00 | 0.00 | 40 | 1009.5 |
| 20260504175411 | 72 | 193 | 8.0 | 15.0 | 0.00 | 0.00 | 0.00 | 40 | 1009.6 |
| 20260504175312 | 72 | 148 | 8.0 | 15.0 | 0.00 | 0.00 | 0.00 | 43 | 1009.6 |
| 20260504175211 | 72 | 167 | 8.0 | 15.0 | 0.00 | 0.00 | 0.00 | 42 | 1009.6 |
| 20260504175111 | 72 | 240 | 8.0 | 15.0 | 0.00 | 0.00 | 0.00 | 41 | 1009.6 |
| 20260504175011 | 72 | 218 | 8.0 | 15.0 | 0.00 | 0.00 | 0.00 | 40 | 1009.7 |
| 20260504174952 | 72 | 227 | 8.0 | 15.0 | 0.00 | 0.00 | 0.00 | 40 | 1009.5 |
| 20260504174947 | 72 | 217 | 7.0 | 15.0 | 0.00 | 0.00 | 0.00 | 41 | 1009.6 |
| 20260504174937 | 72 | 224 | 8.0 | 15.0 | 0.00 | 0.00 | 0.00 | 41 | 1009.7 |
| 20260504174607 | 73 | 207 | 7.0 | 15.0 | 0.00 | 0.00 | 0.00 | 39 | 1009.6 |
| 20260504174508 | 73 | 173 | 6.0 | 15.0 | 0.00 | 0.00 | 0.00 | 40 | 1009.6 |
| 20260504174407 | 73 | 198 | 6.0 | 15.0 | 0.00 | 0.00 | 0.00 | 40 | 1009.6 |
| 20260504174307 | 73 | 200 | 5.0 | 16.0 | 0.00 | 0.00 | 0.00 | 41 | 1009.6 |
| 20260504174206 | 73 | 187 | 5.0 | 16.0 | 0.00 | 0.00 | 0.00 | 41 | 1009.6 |
| 20260504174107 | 72 | 167 | 5.0 | 16.0 | 0.00 | 0.00 | 0.00 | 42 | 1009.6 |
| 20260504174008 | 72 | 224 | 5.0 | 16.0 | 0.00 | 0.00 | 0.00 | 42 | 1009.6 |
| 20260504173948 | 72 | 188 | 6.0 | 16.0 | 0.00 | 0.00 | 0.00 | 44 | 1009.7 |
| 20260504173936 | 72 | 213 | 5.0 | 16.0 | 0.00 | 0.00 | 0.00 | 40 | 1009.6 |
| 20260504173817 | 72 | 252 | 6.0 | 16.0 | 0.00 | 0.00 | 0.00 | 40 | 1009.6 |
| 20260504173627 | 72 | 200 | 8.0 | 16.0 | 0.00 | 0.00 | 0.00 | 42 | 1009.7 |
| 20260504173619 | 72 | 253 | 7.0 | 16.0 | 0.00 | 0.00 | 0.00 | 44 | 1009.6 |
| 20260504173403 | 72 | 241 | 8.0 | 16.0 | 0.00 | 0.00 | 0.00 | 45 | 1009.7 |
| 20260504173303 | 72 | 155 | 8.0 | 16.0 | 0.00 | 0.00 | 0.00 | 42 | 1009.8 |
| 20260504173204 | 71 | 172 | 7.0 | 16.0 | 0.00 | 0.00 | 0.00 | 40 | 1009.7 |
| 20260504173100 | 71 | 182 | 7.0 | 16.0 | 0.00 | 0.00 | 0.00 | 41 | 1009.7 |
| 20260504173001 | 72 | 105 | 7.0 | 16.0 | 0.00 | 0.00 | 0.00 | 43 | 1009.7 |
| 20260504172901 | 72 | 173 | 6.0 | 16.0 | 0.00 | 0.00 | 0.00 | 40 | 1009.7 |
| 20260504172759 | 72 | 186 | 6.0 | 16.0 | 0.00 | 0.00 | 0.00 | 41 | 1009.8 |
| 20260504172659 | 72 | 163 | 6.0 | 16.0 | 0.00 | 0.00 | 0.00 | 42 | 1009.7 |
| 20260504172558 | 72 | 148 | 6.0 | 16.0 | 0.00 | 0.00 | 0.00 | 41 | 1009.7 |
| 20260504172542 | 71 | 185 | 6.0 | 15.0 | 0.00 | 0.00 | 0.00 | 47 | 1009.9 |
| 20260504172531 | 72 | 138 | 6.0 | 16.0 | 0.00 | 0.00 | 0.00 | 42 | 1009.8 |
| 20260504172412 | 71 | 171 | 6.0 | 15.0 | 0.00 | 0.00 | 0.00 | 41 | 1009.8 |
| 20260504172155 | 71 | 225 | 6.0 | 15.0 | 0.00 | 0.00 | 0.00 | 46 | 1009.8 |
| 20260504172055 | 71 | 325 | 7.0 | 15.0 | 0.00 | 0.00 | 0.00 | 49 | 1009.8 |
| 20260504171955 | 71 | 264 | 8.0 | 17.0 | 0.00 | 0.00 | 0.00 | 41 | 1009.8 |
| 20260504171855 | 71 | 280 | 8.0 | 17.0 | 0.00 | 0.00 | 0.00 | 41 | 1009.9 |
| 20260504171755 | 71 | 249 | 8.0 | 17.0 | 0.00 | 0.00 | 0.00 | 40 | 1009.9 |
| 20260504171655 | 71 | 236 | 8.0 | 17.0 | 0.00 | 0.00 | 0.00 | 40 | 1009.9 |
| 20260504171555 | 71 | 194 | 8.0 | 17.0 | 0.00 | 0.00 | 0.00 | 42 | 1010.0 |
| 20260504171452 | 71 | 194 | 8.0 | 17.0 | 0.00 | 0.00 | 0.00 | 41 | 1010.0 |
| 20260504171416 | 71 | 157 | 8.0 | 17.0 | 0.00 | 0.00 | 0.00 | 42 | 1009.9 |
| 20260504171408 | 71 | 213 | 8.0 | 17.0 | 0.00 | 0.00 | 0.00 | 42 | 1010.0 |
| 20260504171152 | 71 | 158 | 8.0 | 17.0 | 0.00 | 0.00 | 0.00 | 43 | 1009.9 |
| 20260504171051 | 71 | 156 | 8.0 | 17.0 | 0.00 | 0.00 | 0.00 | 41 | 1009.9 |
| 20260504170951 | 71 | 160 | 7.0 | 17.0 | 0.00 | 0.00 | 0.00 | 43 | 1009.9 |
| 20260504170851 | 71 | 128 | 8.0 | 17.0 | 0.00 | 0.00 | 0.00 | 42 | 1009.9 |
| 20260504170752 | 71 | 204 | 8.0 | 17.0 | 0.00 | 0.00 | 0.00 | 40 | 1010.0 |
| 20260504170648 | 71 | 190 | 8.0 | 17.0 | 0.00 | 0.00 | 0.00 | 39 | 1010.1 |
| 20260504170548 | 71 | 184 | 7.0 | 17.0 | 0.00 | 0.00 | 0.00 | 41 | 1010.1 |
| 20260504170448 | 71 | 223 | 7.0 | 17.0 | 0.00 | 0.00 | 0.00 | 42 | 1010.1 |
| 20260504170347 | 71 | 194 | 7.0 | 17.0 | 0.00 | 0.00 | 0.00 | 43 | 1010.2 |